DB0MOE-6 Weather Reports


time (UTC)temp
C
wind
direction
speed
KPH
gust
KPH
rain 1hr
cm
rain 24hr
cm
rain mn
cm
humidity
%
barometer
mb
20260505212721 13 150 1.6 4.8 0.00 0.84 0.84 82 988.4
20260505212621 13 181 1.6 3.2 0.00 0.84 0.84 82 988.3
20260505212521 13 113 1.6 3.2 0.00 0.84 0.84 82 988.4
20260505212421 13 78 1.6 3.2 0.00 0.84 0.84 82 988.5
20260505212321 13 135 1.6 8.0 0.00 0.84 0.84 82 988.5
20260505212221 13 152 1.6 8.0 0.00 0.84 0.84 82 988.4
20260505212121 13 117 0.0 8.0 0.00 0.84 0.84 83 988.5
20260505212021 13 112 1.6 1.6 0.00 0.84 0.84 83 988.6
20260505211921 13 112 0.0 1.6 0.00 0.84 0.84 82 988.3
20260505211823 13 112 1.6 1.6 0.00 0.84 0.84 82 988.5
20260505211723 13 112 0.0 1.6 0.00 0.84 0.84 83 988.4
20260505211623 13 110 0.0 3.2 0.00 0.84 0.84 82 988.5
20260505211523 13 60 1.6 3.2 0.00 0.84 0.84 82 988.5
20260505211422 13 55 1.6 3.2 0.00 0.84 0.84 81 988.5
20260505211322 13 128 0.0 3.2 0.00 0.84 0.84 81 988.5
20260505211222 13 172 1.6 3.2 0.00 0.84 0.84 81 988.5
20260505211122 13 121 1.6 4.8 0.00 0.84 0.84 81 988.5
20260505211022 13 135 1.6 4.8 0.00 0.84 0.84 82 988.5
20260505210922 13 130 1.6 3.2 0.00 0.84 0.84 82 988.4
20260505210822 13 123 1.6 3.2 0.00 0.84 0.84 82 988.3
20260505210722 13 263 1.6 3.2 0.00 0.84 0.84 82 988.5
20260505210622 13 41 0.0 3.2 0.00 0.84 0.84 83 988.5
20260505210522 13 76 0.0 3.2 0.00 0.84 0.84 83 988.3
20260505210422 13 95 1.6 3.2 0.00 0.84 0.84 83 988.4
20260505210322 13 112 0.0 1.6 0.00 0.84 0.84 84 988.4
20260505210222 13 68 1.6 1.6 0.00 0.84 0.84 83 988.4
20260505210122 13 45 1.6 1.6 0.00 0.84 0.84 84 988.6
20260505210022 13 73 0.0 1.6 0.00 0.84 0.84 83 988.5
20260505205922 13 304 0.0 1.6 0.00 0.84 0.84 83 988.5
20260505205822 13 274 0.0 1.6 0.00 0.84 0.84 83 988.4
20260505205722 13 112 1.6 8.0 0.00 0.84 0.84 82 988.2
20260505205622 13 146 1.6 8.0 0.00 0.84 0.84 83 988.4
20260505205522 13 63 0.0 3.2 0.00 0.84 0.84 83 988.5
20260505205422 13 45 0.0 0.0 0.00 0.84 0.84 83 988.3
20260505205322 13 68 0.0 0.0 0.00 0.84 0.84 83 988.4
20260505205222 13 68 0.0 9.7 0.00 0.84 0.84 82 988.4
20260505205122 13 77 1.6 9.7 0.00 0.84 0.84 82 988.4
20260505205021 13 135 1.6 4.8 0.00 0.84 0.84 82 988.2
20260505204921 13 135 1.6 4.8 0.00 0.84 0.84 82 988.3
20260505204821 13 131 1.6 4.8 0.00 0.84 0.84 82 988.3
20260505204721 13 42 1.6 3.2 0.00 0.84 0.84 83 988.3
20260505204621 13 283 0.0 3.2 0.00 0.84 0.84 84 988.3
20260505204521 13 85 1.6 3.2 0.00 0.84 0.84 83 988.4
20260505204421 13 340 0.0 3.2 0.00 0.84 0.84 84 988.4
20260505204321 14 228 1.6 3.2 0.00 0.84 0.84 83 988.3
20260505204221 14 119 1.6 3.2 0.00 0.84 0.84 83 988.4
20260505204121 14 112 1.6 3.2 0.00 0.84 0.84 82 988.5
20260505204021 14 123 1.6 3.2 0.00 0.84 0.84 83 988.3
20260505203921 14 112 0.0 3.2 0.00 0.84 0.84 83 988.3
20260505203821 14 111 0.0 4.8 0.00 0.84 0.84 83 988.3
20260505203721 14 33 1.6 4.8 0.00 0.84 0.84 82 988.2
20260505203621 13 91 1.6 4.8 0.00 0.84 0.84 82 988.2
20260505203523 13 135 1.6 4.8 0.00 0.84 0.84 83 988.3
20260505203423 13 117 0.0 4.8 0.00 0.84 0.84 84 988.3
20260505203323 13 112 1.6 3.2 0.00 0.84 0.84 84 988.3
20260505203223 13 112 1.6 3.2 0.00 0.84 0.84 84 988.3
20260505203123 13 122 1.6 3.2 0.00 0.84 0.84 84 988.3
20260505203023 13 117 0.0 3.2 0.00 0.84 0.84 84 988.4
20260505202922 13 112 1.6 3.2 0.00 0.84 0.84 84 988.5
20260505202822 13 127 1.6 3.2 0.00 0.84 0.84 85 988.4
20260505202722 13 112 1.6 3.2 0.00 0.84 0.84 85 988.4
20260505202622 13 202 0.0 3.2 0.00 0.84 0.84 85 988.4
20260505202522 13 15 1.6 1.6 0.00 0.84 0.84 84 988.5
20260505202422 13 126 1.6 8.0 0.00 0.84 0.84 85 988.4
20260505202322 13 112 0.0 3.2 0.00 0.84 0.84 85 988.5
20260505202222 13 112 1.6 3.2 0.00 0.84 0.84 85 988.4
20260505202122 13 112 1.6 1.6 0.00 0.84 0.84 85 988.4
20260505202022 13 112 0.0 3.2 0.00 0.84 0.84 85 988.3
20260505201922 13 122 0.0 3.2 0.00 0.84 0.84 85 988.4
20260505201822 13 135 0.0 0.0 0.00 0.84 0.84 85 988.2
20260505201722 13 135 0.0 0.0 0.00 0.84 0.84 84 988.4
20260505201622 13 129 0.0 1.6 0.00 0.84 0.84 84 988.3
20260505201522 13 112 0.0 1.6 0.00 0.84 0.84 84 988.3
20260505201422 14 155 0.0 1.6 0.00 0.84 0.84 84 988.4
20260505201322 14 59 0.0 1.6 0.00 0.84 0.84 84 988.4
20260505201222 14 103 0.0 1.6 0.00 0.84 0.84 84 988.4
20260505201122 14 110 0.0 1.6 0.00 0.84 0.84 84 988.5
20260505201022 14 111 0.0 3.2 0.00 0.84 0.84 84 988.3
20260505200922 14 123 0.0 3.2 0.00 0.84 0.84 84 988.4
20260505200822 14 135 0.0 3.2 0.00 0.84 0.84 84 988.6
20260505200722 14 46 0.0 3.2 0.00 0.84 0.84 84 988.5
20260505200622 14 0 0.0 0.0 0.00 0.84 0.84 85 988.3
20260505200522 14 346 0.0 0.0 0.00 0.84 0.84 84 988.3
20260505200422 14 95 0.0 0.0 0.00 0.84 0.84 83 988.5
20260505200322 14 158 0.0 1.6 0.00 0.84 0.84 83 988.5
20260505200222 14 126 1.6 3.2 0.00 0.84 0.84 83 988.5
20260505200121 14 149 1.6 3.2 0.00 0.84 0.84 83 988.5
20260505200021 14 139 0.0 4.8 0.00 0.84 0.84 83 988.4
20260505195921 14 135 1.6 4.8 0.00 0.84 0.84 83 988.5
20260505195821 14 124 1.6 3.2 0.00 0.84 0.84 83 988.5
20260505195721 14 112 0.0 3.2 0.00 0.84 0.84 83 988.4
20260505195621 14 104 1.6 1.6 0.00 0.84 0.84 83 988.4
20260505195521 14 135 1.6 4.8 0.00 0.84 0.84 83 988.6
20260505195421 14 120 0.0 4.8 0.00 0.84 0.84 84 988.4
20260505195321 14 111 1.6 4.8 0.00 0.84 0.84 83 988.5
20260505195221 14 344 1.6 4.8 0.00 0.84 0.84 83 988.5
20260505195121 14 12 1.6 4.8 0.00 0.84 0.84 83 988.4
20260505195021 14 112 0.0 3.2 0.00 0.84 0.84 84 988.4
20260505194921 14 112 1.6 3.2 0.00 0.84 0.84 84 988.3
20260505194821 14 157 1.6 3.2 0.00 0.84 0.84 83 988.2
20260505194721 14 315 0.0 1.6 0.00 0.84 0.84 83 988.2
20260505194621 14 134 1.6 3.2 0.00 0.84 0.84 83 988.3
20260505194523 14 93 1.6 3.2 0.00 0.84 0.84 83 988.3
20260505194423 14 277 1.6 4.8 0.00 0.84 0.84 83 988.2
20260505194323 14 101 1.6 9.7 0.00 0.84 0.84 83 988.2
20260505194223 14 135 1.6 9.7 0.00 0.84 0.84 83 988.2
20260505194123 14 98 1.6 4.8 0.00 0.84 0.84 84 988.2
20260505194023 14 115 0.0 3.2 0.00 0.84 0.84 83 988.2
20260505193922 14 125 0.0 3.2 0.00 0.84 0.84 83 988.2
20260505193822 14 29 0.0 1.6 0.00 0.84 0.84 83 988.3
20260505193722 14 70 0.0 3.2 0.00 0.84 0.84 83 988.2
20260505193622 14 173 1.6 4.8 0.00 0.84 0.84 82 988.3
20260505193522 14 135 1.6 3.2 0.00 0.84 0.84 83 988.0
20260505193422 14 119 1.6 3.2 0.00 0.84 0.84 83 988.1
20260505193322 14 127 1.6 1.6 0.00 0.84 0.84 83 988.1
20260505193222 14 287 1.6 11.3 0.00 0.84 0.84 83 988.1
20260505193122 14 135 1.6 3.2 0.00 0.84 0.84 84 988.1
20260505193022 14 119 1.6 3.2 0.00 0.84 0.84 84 988.2
20260505192922 14 112 0.0 3.2 0.00 0.84 0.84 84 988.3
20260505192822 14 113 1.6 3.2 0.00 0.84 0.84 84 988.3
20260505192722 14 99 1.6 3.2 0.00 0.84 0.84 83 988.2
20260505192622 14 96 0.0 1.6 0.00 0.84 0.84 83 988.1
20260505192522 14 106 1.6 4.8 0.00 0.84 0.84 83 988.2
20260505192422 14 117 1.6 4.8 0.00 0.84 0.84 83 988.2
20260505192322 14 135 1.6 4.8 0.00 0.84 0.84 83 988.2
20260505192222 14 135 1.6 4.8 0.00 0.84 0.84 83 988.2
20260505192122 14 120 1.6 4.8 0.00 0.84 0.84 83 988.1
20260505192022 14 121 1.6 8.0 0.00 0.84 0.84 83 988.1
20260505191922 14 103 1.6 8.0 0.00 0.84 0.84 84 988.1
20260505191822 14 135 1.6 3.2 0.00 0.84 0.84 84 988.2
20260505191722 14 116 1.6 3.2 0.00 0.84 0.84 83 988.1
20260505191621 14 115 1.6 3.2 0.00 0.84 0.84 83 988.1
20260505191521 14 135 1.6 3.2 0.00 0.84 0.84 83 988.1
20260505191421 13 135 1.6 3.2 0.00 0.84 0.84 83 988.0
20260505191321 13 136 1.6 1.6 0.00 0.84 0.84 84 988.2
20260505191221 13 102 1.6 4.8 0.00 0.84 0.84 84 988.2
20260505191121 13 84 1.6 4.8 0.00 0.84 0.84 85 988.2
20260505191021 13 112 0.0 1.6 0.00 0.84 0.84 85 988.3
20260505190921 13 114 0.0 3.2 0.00 0.84 0.84 84 988.3
20260505190821 13 127 0.0 3.2 0.00 0.84 0.84 85 988.2
20260505190721 13 112 0.0 0.0 0.00 0.84 0.84 84 988.2
20260505190621 13 112 1.6 8.0 0.00 0.84 0.84 84 988.2
20260505190521 13 139 1.6 8.0 0.00 0.84 0.84 84 988.2
20260505190421 13 254 0.0 1.6 0.00 0.84 0.84 85 988.2
20260505190321 13 261 0.0 3.2 0.00 0.84 0.84 85 988.3
20260505190221 13 121 0.0 3.2 0.00 0.84 0.84 85 988.1
20260505190123 13 112 0.0 1.6 0.00 0.84 0.84 85 988.2
20260505190023 13 112 0.0 1.6 0.00 0.84 0.84 85 988.3
20260505185923 13 112 0.0 3.2 0.00 0.84 0.84 84 988.1
20260505185823 13 122 1.6 3.2 0.00 0.84 0.84 84 988.0
20260505185723 13 123 0.0 3.2 0.00 0.84 0.84 85 988.2
20260505185623 13 127 1.6 3.2 0.00 0.84 0.84 85 988.1
20260505185522 13 112 1.6 3.2 0.00 0.84 0.84 85 988.2
20260505185422 13 142 0.0 3.2 0.00 0.84 0.84 85 988.1
20260505185322 13 139 1.6 3.2 0.00 0.84 0.84 85 988.0
20260505185222 13 113 1.6 3.2 0.00 0.84 0.84 85 988.0
20260505185122 13 103 0.0 3.2 0.00 0.84 0.84 84 988.1
20260505185022 13 90 0.0 0.0 0.00 0.84 0.84 85 988.1
20260505184922 13 90 0.0 1.6 0.00 0.84 0.84 84 988.1
20260505184822 13 90 0.0 1.6 0.00 0.84 0.84 85 988.0
20260505184722 13 90 0.0 1.6 0.00 0.84 0.84 85 988.1
20260505184622 13 102 0.0 1.6 0.00 0.84 0.84 85 988.0
20260505184522 13 112 0.0 3.2 0.00 0.84 0.84 84 988.0
20260505184422 13 112 1.6 4.8 0.00 0.84 0.84 84 988.2
20260505184322 13 127 1.6 4.8 0.00 0.84 0.84 84 988.1
20260505184222 13 142 1.6 3.2 0.00 0.84 0.84 85 988.0
20260505184122 14 117 0.0 3.2 0.00 0.84 0.84 84 988.0
20260505184022 14 135 1.6 3.2 0.00 0.84 0.84 84 988.1
20260505183922 14 135 3.2 3.2 0.00 0.84 0.84 84 987.9
20260505183822 14 135 1.6 3.2 0.00 0.84 0.84 85 988.1
20260505183722 14 135 1.6 3.2 0.00 0.84 0.84 84 988.1
20260505183622 14 135 1.6 4.8 0.00 0.84 0.84 85 988.0
20260505183522 14 135 1.6 4.8 0.00 0.84 0.84 85 988.0
20260505183422 14 100 1.6 3.2 0.00 0.84 0.84 85 988.1
20260505183322 14 131 1.6 3.2 0.00 0.84 0.84 85 988.2
20260505183222 14 156 1.6 4.8 0.00 0.84 0.84 85 988.0
20260505183121 14 135 1.6 4.8 0.00 0.84 0.84 85 988.1
20260505183021 14 117 1.6 4.8 0.00 0.84 0.84 85 988.1
20260505182921 14 118 1.6 4.8 0.00 0.84 0.84 86 988.1
20260505182821 14 135 0.0 1.6 0.00 0.84 0.84 85 988.0
20260505182721 14 120 1.6 1.6 0.00 0.84 0.84 86 988.1
20260505182621 14 133 1.6 3.2 0.00 0.84 0.84 85 988.0
20260505182521 14 120 1.6 3.2 0.00 0.84 0.84 86 988.0
20260505182421 14 132 1.6 3.2 0.00 0.84 0.84 86 988.1
20260505182321 14 105 1.6 3.2 0.00 0.84 0.84 86 988.1
20260505182221 14 90 1.6 3.2 0.00 0.84 0.84 86 988.1
20260505182121 14 150 1.6 3.2 0.00 0.84 0.84 86 988.1
20260505182021 14 147 1.6 3.2 0.03 0.84 0.84 87 988.0
20260505181921 14 150 1.6 1.6 0.03 0.84 0.84 87 987.9
20260505181821 14 134 1.6 1.6 0.03 0.84 0.84 87 988.0
20260505181721 14 114 0.0 1.6 0.03 0.84 0.84 87 988.2
20260505181621 14 112 0.0 0.0 0.03 0.84 0.84 87 988.0
20260505181523 14 112 0.0 0.0 0.03 0.84 0.84 88 988.2
20260505181423 14 113 0.0 1.6 0.03 0.84 0.84 88 988.1
20260505181323 14 133 0.0 1.6 0.03 0.84 0.84 88 988.1
20260505181223 14 135 0.0 3.2 0.05 0.84 0.84 88 988.1
20260505181123 14 111 0.0 3.2 0.05 0.84 0.84 88 988.0
20260505181023 14 90 0.0 1.6 0.10 0.84 0.84 89 988.1
20260505180922 14 90 0.0 1.6 0.10 0.84 0.84 90 988.1
20260505180822 14 90 0.0 0.0 0.10 0.84 0.84 89 988.1
20260505180722 14 90 0.0 1.6 0.10 0.84 0.84 89 988.1
20260505180622 14 91 1.6 3.2 0.13 0.84 0.84 89 988.1
20260505180522 14 197 0.0 3.2 0.13 0.84 0.84 90 988.1
20260505180422 14 188 0.0 1.6 0.13 0.84 0.84 90 988.0
20260505180322 14 90 0.0 0.0 0.13 0.84 0.84 90 988.0
20260505180222 14 90 0.0 0.0 0.13 0.84 0.84 90 988.0
20260505180122 14 90 0.0 0.0 0.15 0.84 0.84 90 988.0
20260505180022 14 90 0.0 1.6 0.20 0.84 0.84 90 988.1
20260505175922 14 100 0.0 1.6 0.20 0.84 0.84 90 988.1
20260505175822 14 112 0.0 1.6 0.33 0.84 0.84 89 988.0
20260505175722 14 112 0.0 3.2 0.36 0.84 0.84 90 988.1
20260505175622 14 131 1.6 3.2 0.43 0.84 0.84 89 987.9
20260505175522 14 135 1.6 4.8 0.46 0.84 0.84 90 987.9
20260505175422 14 135 0.0 4.8 0.51 0.84 0.84 90 988.1
20260505175322 14 120 0.0 1.6 0.51 0.84 0.84 90 988.0
20260505175222 14 118 0.0 1.6 0.53 0.84 0.84 90 988.2
20260505175122 14 135 0.0 0.0 0.56 0.84 0.84 90 988.0
20260505175022 14 135 0.0 0.0 0.61 0.84 0.84 91 988.1
20260505174922 14 135 0.0 0.0 0.61 0.84 0.84 91 988.2
20260505174822 14 135 0.0 0.0 0.61 0.84 0.84 91 988.1
20260505174722 14 135 0.0 0.0 0.64 0.84 0.84 91 988.1
20260505174622 14 135 0.0 0.0 0.64 0.84 0.84 91 988.1
20260505174522 13 135 0.0 0.0 0.64 0.84 0.84 90 988.1
20260505174422 13 135 0.0 0.0 0.64 0.84 0.84 90 988.1
20260505174322 13 135 0.0 0.0 0.64 0.84 0.84 90 988.1
20260505174221 13 135 0.0 1.6 0.66 0.84 0.84 90 988.0
20260505174121 13 136 0.0 1.6 0.66 0.84 0.84 90 988.1
20260505174021 13 245 0.0 1.6 0.66 0.84 0.84 90 988.3
20260505173921 13 239 0.0 0.0 0.69 0.84 0.84 90 988.1
20260505173821 14 280 0.0 0.0 0.69 0.84 0.84 90 988.1
20260505173721 14 292 0.0 0.0 0.69 0.84 0.84 90 988.2
20260505173621 14 292 0.0 0.0 0.69 0.84 0.84 91 988.2
20260505173521 14 292 0.0 0.0 0.69 0.84 0.84 91 988.2
20260505173421 14 242 0.0 0.0 0.69 0.84 0.84 91 988.1
20260505173321 14 184 0.0 0.0 0.69 0.84 0.84 90 988.2
20260505173221 14 247 0.0 0.0 0.69 0.84 0.84 90 988.1
20260505173121 14 248 0.0 0.0 0.69 0.84 0.84 90 988.1
20260505173021 14 259 0.0 0.0 0.71 0.84 0.84 91 988.0
20260505172921 14 270 0.0 0.0 0.71 0.84 0.84 90 988.0
20260505172823 14 270 0.0 0.0 0.71 0.84 0.84 90 988.0
20260505172723 14 270 0.0 0.0 0.76 0.84 0.84 90 988.1
20260505172623 14 270 0.0 0.0 0.76 0.84 0.84 90 988.0
20260505172523 14 270 0.0 0.0 0.76 0.84 0.84 90 988.1
20260505172423 14 270 0.0 0.0 0.76 0.84 0.84 90 988.0
20260505172323 14 270 0.0 0.0 0.76 0.84 0.84 90 988.1
20260505172223 14 270 0.0 0.0 0.76 0.84 0.84 90 988.1
20260505172123 14 273 0.0 0.0 0.76 0.84 0.84 90 987.9
20260505172022 14 292 0.0 0.0 0.76 0.81 0.81 90 987.8
20260505171922 14 285 0.0 0.0 0.76 0.81 0.81 90 987.9
20260505171822 14 270 0.0 0.0 0.76 0.81 0.81 89 987.9
20260505171722 14 268 0.0 1.6 0.76 0.81 0.81 89 988.0
20260505171622 14 256 1.6 3.2 0.76 0.81 0.81 89 987.9
20260505171522 14 263 1.6 4.8 0.76 0.81 0.81 89 988.0
20260505171422 14 279 0.0 4.8 0.76 0.81 0.81 89 988.0
20260505171322 14 299 0.0 1.6 0.76 0.81 0.81 88 988.0
20260505171222 14 335 0.0 1.6 0.71 0.79 0.79 88 988.0
20260505171122 14 293 0.0 1.6 0.71 0.79 0.79 88 987.9
20260505171022 14 292 1.6 1.6 0.69 0.76 0.76 88 987.9
20260505170922 14 265 1.6 8.0 0.69 0.76 0.76 87 988.0
20260505170822 14 249 3.2 8.0 0.69 0.76 0.76 86 987.9
20260505170722 14 269 1.6 8.0 0.69 0.76 0.76 86 987.9
20260505170622 14 286 3.2 12.9 0.66 0.71 0.71 86 987.9
20260505170522 14 280 1.6 12.9 0.66 0.71 0.71 87 988.0
20260505170422 14 268 1.6 4.8 0.66 0.71 0.71 86 987.9
20260505170322 14 248 1.6 4.8 0.66 0.71 0.71 88 987.9
20260505170222 15 217 1.6 4.8 0.66 0.71 0.71 88 987.9
20260505170122 15 286 1.6 3.2 0.64 0.69 0.69 87 987.9
20260505170022 15 270 3.2 3.2 0.56 0.64 0.64 88 988.0
20260505165922 15 270 1.6 3.2 0.56 0.64 0.64 89 988.0
20260505165821 15 39 0.0 1.6 0.46 0.51 0.51 90 987.8
20260505165721 15 275 0.0 0.0 0.43 0.48 0.48 90 987.8
20260505165621 15 270 0.0 1.6 0.36 0.43 0.43 89 987.8
20260505165521 15 270 0.0 1.6 0.33 0.38 0.38 89 987.8
20260505165421 15 270 1.6 1.6 0.28 0.33 0.33 89 987.6
20260505165321 15 114 0.0 1.6 0.28 0.33 0.33 89 987.7
20260505165221 15 112 0.0 0.0 0.23 0.30 0.30 88 987.5
20260505165121 15 112 0.0 0.0 0.20 0.28 0.28 88 987.5
20260505165021 15 127 0.0 0.0 0.18 0.23 0.23 88 987.6
20260505164921 15 135 0.0 0.0 0.18 0.23 0.23 87 987.7
20260505164821 15 135 0.0 0.0 0.18 0.23 0.23 87 987.6
20260505164721 15 135 0.0 0.0 0.15 0.20 0.20 87 987.6
20260505164621 15 135 0.0 3.2 0.15 0.20 0.20 87 987.4
20260505164521 15 154 1.6 3.2 0.15 0.20 0.20 86 987.5
20260505164421 15 154 1.6 3.2 0.15 0.20 0.20 86 987.6
20260505164321 15 135 1.6 3.2 0.15 0.20 0.20 87 987.6
20260505164221 15 82 0.0 3.2 0.13 0.18 0.18 87 987.6
20260505164123 15 68 0.0 0.0 0.13 0.18 0.18 87 987.6
20260505164023 15 64 0.0 0.0 0.13 0.18 0.18 86 987.5
20260505163923 15 9 0.0 0.0 0.10 0.15 0.15 86 987.6
20260505163823 15 314 0.0 0.0 0.10 0.15 0.15 84 987.6
20260505163723 15 294 0.0 0.0 0.10 0.15 0.15 84 987.7
20260505163623 15 292 0.0 0.0 0.10 0.15 0.15 83 987.6
20260505163522 15 292 0.0 0.0 0.10 0.15 0.15 83 987.5
20260505163422 15 292 0.0 0.0 0.10 0.15 0.15 84 987.4
20260505163322 16 292 0.0 0.0 0.10 0.15 0.15 83 987.5
20260505163222 16 312 0.0 0.0 0.10 0.15 0.15 83 987.5
20260505163122 16 305 0.0 0.0 0.10 0.15 0.15 83 987.5
20260505163022 16 112 0.0 0.0 0.05 0.13 0.13 83 987.5
20260505162922 16 112 0.0 1.6 0.05 0.13 0.13 83 987.4
20260505162822 16 132 0.0 1.6 0.05 0.13 0.13 82 987.4
20260505162722 16 135 0.0 1.6 0.03 0.10 0.10 82 987.5
20260505162622 16 135 0.0 1.6 0.03 0.10 0.10 81 987.6
20260505162522 16 116 0.0 1.6 0.03 0.10 0.10 81 987.6
20260505162422 16 52 0.0 1.6 0.03 0.10 0.10 79 987.6
20260505162322 16 45 0.0 1.6 0.03 0.10 0.10 79 987.6
20260505162222 16 28 0.0 1.6 0.03 0.10 0.10 80 987.6
20260505162122 16 22 0.0 1.6 0.03 0.10 0.10 79 987.5
20260505162022 16 3 0.0 1.6 0.00 0.05 0.05 78 987.6
20260505161922 16 0 0.0 0.0 0.00 0.05 0.05 79 987.5
20260505161822 16 0 0.0 1.6 0.00 0.05 0.05 79 987.6
20260505161722 16 359 0.0 1.6 0.00 0.05 0.05 78 987.5
20260505161622 16 318 1.6 1.6 0.00 0.05 0.05 77 987.7
20260505161521 16 299 1.6 1.6 0.00 0.05 0.05 76 987.8
20260505161421 16 298 1.6 1.6 0.00 0.05 0.05 76 987.8
20260505161321 16 297 1.6 1.6 0.00 0.05 0.05 76 987.7
20260505161221 16 312 1.6 1.6 0.00 0.05 0.05 76 987.7
20260505161121 17 300 0.0 1.6 0.00 0.05 0.05 75 987.6
20260505161021 17 292 0.0 1.6 0.00 0.05 0.05 75 987.7
20260505160921 17 276 1.6 3.2 0.00 0.05 0.05 74 987.7
20260505160821 17 283 1.6 3.2 0.00 0.05 0.05 75 987.7
20260505160721 17 270 1.6 1.6 0.00 0.05 0.05 74 987.8
20260505160621 17 270 1.6 1.6 0.00 0.05 0.05 74 987.8
20260505160521 17 270 1.6 3.2 0.00 0.05 0.05 73 987.7
20260505160421 17 274 1.6 3.2 0.00 0.05 0.05 74 987.7
20260505160321 17 292 1.6 3.2 0.00 0.05 0.05 75 987.7
20260505160221 17 286 1.6 3.2 0.00 0.05 0.05 74 987.6
20260505160121 17 286 1.6 3.2 0.00 0.05 0.05 75 987.6
20260505153321 17 312 1.6 3.2 0.00 0.05 0.05 74 987.6
20260505153221 17 322 3.2 8.0 0.00 0.05 0.05 73 987.6
20260505153121 17 29 3.2 8.0 0.00 0.05 0.05 73 987.7
20260505153021 17 33 3.2 8.0 0.00 0.05 0.05 71 987.7
20260505152921 18 17 3.2 8.0 0.00 0.05 0.05 71 987.6
20260505152821 18 326 1.6 4.8 0.00 0.05 0.05 72 987.8
20260505152721 18 254 1.6 4.8 0.00 0.05 0.05 70 987.6
20260505152621 18 354 3.2 8.0 0.00 0.05 0.05 69 987.7
20260505152521 18 0 4.8 8.0 0.00 0.05 0.05 70 987.6
20260505152421 18 325 4.8 8.0 0.00 0.05 0.05 71 987.5
20260505152321 18 322 3.2 8.0 0.00 0.05 0.05 71 987.6
20260505152223 18 319 1.6 8.0 0.00 0.05 0.05 70 987.6
20260505152123 18 357 1.6 4.8 0.00 0.05 0.05 71 987.6
20260505152023 18 7 3.2 9.7 0.00 0.05 0.05 71 987.7
20260505151923 17 292 3.2 9.7 0.00 0.05 0.05 73 987.6
20260505151823 17 21 3.2 8.0 0.00 0.05 0.05 73 987.6
20260505151722 17 3 4.8 8.0 0.00 0.05 0.05 72 987.6
20260505151622 17 342 4.8 11.3 0.00 0.05 0.05 73 987.6
20260505151522 17 344 4.8 9.7 0.00 0.05 0.05 72 987.7
20260505151422 17 359 3.2 9.7 0.00 0.05 0.05 72 987.6
20260505151322 17 318 3.2 9.7 0.00 0.05 0.05 72 987.6
20260505151222 17 253 1.6 9.7 0.00 0.05 0.05 72 987.6
20260505151122 17 352 1.6 4.8 0.00 0.05 0.05 72 987.6
20260505151022 17 295 3.2 9.7 0.00 0.05 0.05 73 987.5
20260505150922 17 19 4.8 9.7 0.00 0.05 0.05 73 987.5
20260505150822 17 41 4.8 9.7 0.00 0.05 0.05 74 987.6
20260505150722 17 17 4.8 9.7 0.00 0.05 0.05 74 987.6
20260505150622 17 322 4.8 8.0 0.00 0.05 0.05 74 987.5
20260505150522 17 273 4.8 9.7 0.00 0.05 0.05 73 987.5
20260505150422 17 305 4.8 9.7 0.00 0.05 0.05 75 987.6
20260505150322 17 326 4.8 9.7 0.00 0.05 0.05 75 987.5
20260505150222 18 12 9.7 16.1 0.00 0.05 0.05 73 987.4
20260505150122 18 0 8.0 16.1 0.00 0.05 0.05 73 987.4
20260505140622 17 4 1.6 4.8 0.00 0.05 0.05 73 988.0
20260505140521 17 22 1.6 4.8 0.00 0.05 0.05 73 988.0
20260505140421 17 16 3.2 4.8 0.00 0.05 0.05 73 988.0
20260505140321 17 287 3.2 4.8 0.00 0.05 0.05 73 988.0
20260505140221 17 304 3.2 8.0 0.00 0.05 0.05 72 988.1
20260505140121 17 303 3.2 8.0 0.00 0.05 0.05 74 988.1
20260505130222 16 292 1.6 4.8 0.00 0.05 0.05 79 988.4
20260505130122 16 291 1.6 4.8 0.00 0.05 0.05 78 988.4
20260505125022 16 338 0.0 0.0 0.00 0.05 0.05 80 988.6
20260505124922 16 337 0.0 0.0 0.00 0.05 0.05 80 988.7
20260505124822 16 316 0.0 0.0 0.00 0.05 0.05 80 988.5
20260505124722 16 315 0.0 1.6 0.00 0.05 0.05 80 988.5
20260505124621 15 305 0.0 1.6 0.03 0.05 0.05 80 988.5
20260505124521 15 290 0.0 1.6 0.03 0.05 0.05 78 988.5
20260505124421 15 278 1.6 1.6 0.03 0.05 0.05 79 988.7
20260505124321 15 299 0.0 1.6 0.03 0.05 0.05 77 988.6
20260505124221 15 342 1.6 3.2 0.03 0.05 0.05 77 988.6
20260505124121 15 22 1.6 3.2 0.03 0.05 0.05 78 988.6
20260505124021 15 1 0.0 3.2 0.03 0.05 0.05 79 988.6
20260505123921 15 309 0.0 0.0 0.03 0.05 0.05 80 988.6
20260505123821 15 292 0.0 1.6 0.03 0.05 0.05 79 988.6
20260505123721 15 294 0.0 3.2 0.03 0.05 0.05 77 988.6
20260505123621 15 330 1.6 3.2 0.03 0.05 0.05 78 988.6
20260505123521 15 0 1.6 1.6 0.03 0.05 0.05 77 988.7
20260505123421 15 349 1.6 3.2 0.03 0.05 0.05 78 988.8
20260505123321 15 9 1.6 3.2 0.03 0.05 0.05 78 988.7
20260505123221 15 354 1.6 3.2 0.03 0.05 0.05 78 988.6
20260505123121 15 298 1.6 3.2 0.03 0.05 0.05 80 988.7
20260505123023 15 284 1.6 3.2 0.03 0.05 0.05 80 988.6
20260505122923 15 271 1.6 3.2 0.03 0.05 0.05 79 988.6
20260505122823 15 291 1.6 3.2 0.03 0.05 0.05 81 988.6
20260505122723 15 289 1.6 3.2 0.03 0.05 0.05 80 988.7
20260505122623 15 270 1.6 3.2 0.03 0.05 0.05 80 988.6
20260505122523 15 282 1.6 1.6 0.03 0.05 0.05 80 988.5
20260505122423 15 292 1.6 3.2 0.03 0.05 0.05 79 988.7
20260505122323 15 286 1.6 3.2 0.03 0.05 0.05 79 988.7
20260505122223 16 284 1.6 1.6 0.03 0.05 0.05 78 988.6
20260505122122 16 311 1.6 1.6 0.03 0.05 0.05 78 988.7
20260505122022 15 300 0.0 1.6 0.03 0.05 0.05 79 988.6
20260505121922 15 309 0.0 0.0 0.03 0.05 0.05 78 988.8
20260505121822 15 281 0.0 0.0 0.03 0.05 0.05 78 988.6
20260505121722 15 284 0.0 1.6 0.03 0.05 0.05 77 988.7
20260505121622 15 292 1.6 1.6 0.03 0.05 0.05 78 988.7
20260505121522 15 279 1.6 3.2 0.03 0.05 0.05 77 988.6
20260505121422 16 264 1.6 3.2 0.03 0.05 0.05 78 988.8
20260505121322 16 271 1.6 3.2 0.03 0.05 0.05 79 988.7
20260505121222 16 299 1.6 1.6 0.03 0.05 0.05 81 988.7
20260505121122 15 305 0.0 1.6 0.03 0.05 0.05 81 988.6
20260505121022 15 292 0.0 1.6 0.03 0.05 0.05 80 988.7
20260505120922 15 292 0.0 1.6 0.03 0.05 0.05 78 988.7
20260505120822 15 292 1.6 4.8 0.03 0.05 0.05 78 988.7
20260505120722 15 289 1.6 4.8 0.03 0.05 0.05 78 988.8
20260505120622 15 338 1.6 3.2 0.03 0.05 0.05 80 988.7
20260505120522 15 320 1.6 3.2 0.03 0.05 0.05 79 988.7
20260505120421 16 288 1.6 3.2 0.03 0.05 0.05 78 988.7
20260505120321 16 281 1.6 3.2 0.03 0.05 0.05 78 988.8
20260505120221 16 304 1.6 3.2 0.03 0.05 0.05 78 988.8
20260505120121 16 300 1.6 3.2 0.03 0.05 0.05 77 988.7
20260505120021 16 283 1.6 3.2 0.03 0.05 0.05 79 988.7
20260505115921 16 285 1.6 3.2 0.03 0.05 0.05 79 988.6
20260505115821 16 270 1.6 3.2 0.03 0.05 0.05 79 988.7
20260505115721 16 272 1.6 3.2 0.03 0.05 0.05 79 988.8
20260505115621 16 279 1.6 3.2 0.03 0.05 0.05 79 988.7
20260505115521 16 270 1.6 3.2 0.03 0.05 0.05 78 988.8
20260505115421 16 301 0.0 3.2 0.03 0.05 0.05 79 988.8
20260505115321 16 279 0.0 1.6 0.03 0.05 0.05 79 988.7
20260505115221 16 270 0.0 1.6 0.03 0.05 0.05 79 988.7
20260505115121 16 278 1.6 1.6 0.03 0.05 0.05 79 988.7
20260505115021 16 292 1.6 1.6 0.03 0.05 0.05 77 988.9
20260505114921 16 276 0.0 1.6 0.03 0.05 0.05 77 988.8
20260505114823 16 292 1.6 1.6 0.03 0.05 0.05 79 988.8
20260505114723 16 292 0.0 1.6 0.03 0.05 0.05 76 988.8
20260505114623 16 292 0.0 1.6 0.00 0.03 0.03 76 988.7
20260505114523 16 292 1.6 1.6 0.00 0.03 0.03 77 988.6
20260505114423 16 292 1.6 1.6 0.00 0.03 0.03 77 988.8
20260505114323 16 284 1.6 1.6 0.00 0.03 0.03 76 988.7
20260505114223 16 298 1.6 3.2 0.00 0.03 0.03 76 988.7
20260505114122 16 315 1.6 3.2 0.00 0.03 0.03 76 988.9
20260505114022 16 315 1.6 1.6 0.00 0.03 0.03 78 988.8
20260505113922 16 315 1.6 1.6 0.00 0.03 0.03 78 988.8
20260505113822 16 300 1.6 1.6 0.00 0.03 0.03 77 988.8
20260505113722 16 273 1.6 1.6 0.00 0.03 0.03 77 989.0
20260505113622 16 270 1.6 1.6 0.00 0.03 0.03 76 988.8
20260505113522 16 275 1.6 1.6 0.00 0.03 0.03 76 988.7
20260505113422 16 292 1.6 1.6 0.00 0.03 0.03 75 988.8
20260505113322 16 292 0.0 1.6 0.00 0.03 0.03 76 988.7
20260505113222 16 292 1.6 3.2 0.00 0.03 0.03 74 988.8
20260505113122 16 292 1.6 3.2 0.00 0.03 0.03 75 988.8
20260505113022 16 292 1.6 3.2 0.00 0.03 0.03 77 988.8
20260505112922 16 292 1.6 3.2 0.00 0.03 0.03 76 988.8
20260505112822 16 278 1.6 3.2 0.00 0.03 0.03 76 988.9
20260505112722 16 302 1.6 3.2 0.00 0.03 0.03 75 988.7
20260505112622 16 286 1.6 3.2 0.00 0.03 0.03 75 988.9
20260505112522 16 312 1.6 3.2 0.00 0.03 0.03 73 988.9
20260505112422 16 297 0.0 3.2 0.00 0.03 0.03 75 988.8
20260505112322 16 292 1.6 3.2 0.00 0.03 0.03 75 988.7
20260505112222 16 279 0.0 3.2 0.00 0.03 0.03 74 988.7
20260505112122 16 270 0.0 1.6 0.00 0.03 0.03 74 988.8
20260505112021 16 307 1.6 3.2 0.00 0.03 0.03 74 988.8
20260505111921 16 282 1.6 3.2 0.00 0.03 0.03 73 988.8
20260505111821 16 270 1.6 3.2 0.00 0.03 0.03 73 988.9
20260505111721 16 282 0.0 3.2 0.00 0.03 0.03 73 989.0
20260505111621 16 292 1.6 4.8 0.00 0.03 0.03 75 988.9
20260505111521 16 292 1.6 4.8 0.00 0.03 0.03 75 988.9
20260505111421 16 311 1.6 4.8 0.00 0.03 0.03 74 989.0
20260505111321 16 305 1.6 3.2 0.00 0.03 0.03 74 988.9
20260505111221 16 306 1.6 4.8 0.00 0.03 0.03 74 989.0
20260505111121 16 283 3.2 4.8 0.00 0.03 0.03 73 989.1
20260505111021 16 255 1.6 4.8 0.00 0.03 0.03 73 989.0
20260505110921 16 261 1.6 4.8 0.00 0.03 0.03 74 989.1
20260505110821 16 291 3.2 4.8 0.00 0.03 0.03 74 989.1
20260505110721 16 281 1.6 3.2 0.00 0.03 0.03 74 989.0
20260505110621 16 270 1.6 3.2 0.00 0.03 0.03 72 988.9
20260505110521 16 270 1.6 3.2 0.00 0.03 0.03 71 988.9
20260505110421 16 270 0.0 3.2 0.00 0.03 0.03 73 989.0
20260505110321 16 270 0.0 3.2 0.00 0.03 0.03 72 989.0
20260505110223 16 270 1.6 3.2 0.00 0.03 0.03 72 989.0
20260505110123 16 271 1.6 3.2 0.00 0.03 0.03 73 989.1
20260505102221 17 270 3.2 4.8 0.00 0.03 0.03 71 989.1
20260505102121 17 270 4.8 4.8 0.00 0.03 0.03 72 989.1
20260505102021 17 270 3.2 4.8 0.00 0.03 0.03 74 989.1
20260505101921 16 290 1.6 4.8 0.00 0.03 0.03 72 989.1
20260505101823 16 338 1.6 3.2 0.00 0.03 0.03 71 989.2
20260505101723 16 319 1.6 3.2 0.00 0.03 0.03 72 989.1
20260505101623 16 300 1.6 3.2 0.00 0.03 0.03 71 989.1
20260505101523 17 0 3.2 4.8 0.00 0.03 0.03 70 989.1
20260505101422 17 12 3.2 4.8 0.00 0.03 0.03 71 989.1
20260505101322 17 329 0.0 4.8 0.00 0.03 0.03 70 989.2
20260505101222 16 248 0.0 0.0 0.00 0.03 0.03 71 989.3
20260505101122 16 263 0.0 0.0 0.00 0.03 0.03 71 989.2
20260505101022 16 307 1.6 3.2 0.00 0.03 0.03 72 989.2
20260505100922 16 298 3.2 8.0 0.00 0.03 0.03 72 989.3
20260505100822 16 309 3.2 8.0 0.00 0.03 0.03 72 989.2
20260505100722 17 270 4.8 8.0 0.00 0.03 0.03 72 989.3
20260505100622 17 270 3.2 8.0 0.00 0.03 0.03 73 989.4
20260505100522 17 322 1.6 8.0 0.00 0.03 0.03 71 989.3
20260505100422 17 312 3.2 8.0 0.00 0.03 0.03 70 989.3
20260505100322 17 260 0.0 8.0 0.00 0.03 0.03 71 989.3
20260505100222 17 310 1.6 3.2 0.00 0.03 0.03 71 989.3
20260505100122 17 298 1.6 3.2 0.00 0.03 0.03 70 989.4
20260505100022 17 292 0.0 1.6 0.00 0.03 0.03 70 989.2
20260505095922 17 118 0.0 3.2 0.00 0.03 0.03 70 989.4
20260505095822 17 120 1.6 3.2 0.00 0.03 0.03 68 989.2
20260505095722 17 175 0.0 1.6 0.00 0.03 0.03 71 989.4
20260505095622 17 275 0.0 1.6 0.00 0.03 0.03 73 989.5
20260505095522 17 292 1.6 1.6 0.00 0.03 0.03 72 989.4
20260505095422 17 126 1.6 3.2 0.00 0.03 0.03 70 989.4
20260505095322 17 95 1.6 3.2 0.00 0.03 0.03 70 989.4
20260505095221 17 40 0.0 1.6 0.00 0.03 0.03 73 989.5
20260505095121 16 12 0.0 1.6 0.00 0.03 0.03 74 989.5
20260505095021 16 312 0.0 8.0 0.00 0.03 0.03 77 989.5
20260505094921 16 294 1.6 8.0 0.00 0.03 0.03 77 989.6
20260505094821 16 273 3.2 8.0 0.00 0.03 0.03 76 989.6
20260505094721 16 270 3.2 8.0 0.00 0.03 0.03 77 989.7
20260505094621 16 284 1.6 4.8 0.00 0.03 0.03 77 989.6
20260505094521 16 271 3.2 4.8 0.00 0.03 0.03 75 989.6
20260505094421 17 285 4.8 8.0 0.00 0.03 0.03 75 989.7
20260505094321 17 270 3.2 8.0 0.00 0.03 0.03 74 989.7
20260505094221 17 2 0.0 4.8 0.00 0.03 0.03 73 989.7
20260505094121 17 59 0.0 0.0 0.00 0.03 0.03 74 989.7
20260505094021 16 68 0.0 0.0 0.00 0.03 0.03 78 989.6
20260505093921 16 116 0.0 1.6 0.00 0.03 0.03 78 989.7
20260505093821 16 265 0.0 1.6 0.00 0.03 0.03 78 989.7
20260505093721 16 261 1.6 3.2 0.00 0.03 0.03 78 989.6
20260505093621 16 268 3.2 4.8 0.00 0.03 0.03 77 989.7
20260505093523 16 294 1.6 4.8 0.00 0.03 0.03 77 989.6
20260505093423 16 67 0.0 1.6 0.00 0.03 0.03 77 989.7
20260505093323 16 270 0.0 1.6 0.00 0.03 0.03 76 989.8
20260505093223 16 270 1.6 3.2 0.00 0.03 0.03 75 989.9
20260505093123 16 284 3.2 8.0 0.00 0.03 0.03 76 989.8
20260505093023 16 263 3.2 8.0 0.00 0.03 0.03 76 989.7
20260505092922 17 282 1.6 4.8 0.00 0.03 0.03 76 989.7
20260505092822 17 311 0.0 1.6 0.00 0.03 0.03 76 989.7
20260505092722 17 281 1.6 3.2 0.00 0.03 0.03 76 989.8
20260505092622 17 282 0.0 3.2 0.00 0.03 0.03 75 989.8
20260505092522 16 278 0.0 3.2 0.00 0.03 0.03 76 989.7
20260505092422 16 301 0.0 1.6 0.00 0.03 0.03 78 989.7
20260505092322 16 1 0.0 1.6 0.00 0.03 0.03 79 989.8
20260505092222 16 292 0.0 1.6 0.00 0.03 0.03 79 989.7
20260505092122 16 273 1.6 8.0 0.00 0.03 0.03 79 989.6
20260505092022 16 278 3.2 9.7 0.00 0.03 0.03 78 989.7
20260505091922 16 278 3.2 9.7 0.00 0.03 0.03 78 989.7
20260505091822 16 270 3.2 9.7 0.00 0.03 0.03 78 989.8
20260505091722 16 270 3.2 9.7 0.00 0.03 0.03 79 989.7
20260505091622 16 287 3.2 9.7 0.00 0.03 0.03 81 989.9
20260505091522 16 304 3.2 4.8 0.00 0.03 0.03 79 989.8
20260505091422 16 282 1.6 4.8 0.00 0.03 0.03 80 989.8
20260505091322 16 305 3.2 9.7 0.00 0.03 0.03 80 989.9
20260505091222 16 280 1.6 9.7 0.00 0.03 0.03 81 989.8
20260505091122 16 281 1.6 4.8 0.03 0.03 0.03 79 989.9
20260505091022 16 282 1.6 3.2 0.03 0.03 0.03 79 989.9
20260505090922 16 292 0.0 3.2 0.03 0.03 0.03 79 989.8
20260505090821 15 284 0.0 1.6 0.03 0.03 0.03 80 989.8
20260505090722 15 270 0.0 1.6 0.03 0.03 0.03 81 989.7
20260505090621 16 287 1.6 4.8 0.03 0.03 0.03 79 989.6
20260505090521 16 276 3.2 4.8 0.03 0.03 0.03 79 989.8
20260505090421 16 282 1.6 4.8 0.03 0.03 0.03 80 989.7
20260505090321 16 289 1.6 3.2 0.03 0.03 0.03 78 989.6
20260505090222 16 350 0.0 3.2 0.03 0.03 0.03 80 989.6
20260505090121 15 16 0.0 0.0 0.03 0.03 0.03 81 989.8
20260505090021 15 279 0.0 1.6 0.03 0.03 0.03 82 989.9
20260505085921 15 288 0.0 3.2 0.03 0.03 0.03 81 989.8
20260505085821 15 270 0.0 3.2 0.03 0.03 0.03 81 989.7
20260505085721 15 302 0.0 3.2 0.03 0.03 0.03 82 989.7
20260505085621 15 277 1.6 4.8 0.03 0.03 0.03 81 989.8
20260505085521 15 270 3.2 4.8 0.03 0.03 0.03 80 989.7
20260505085421 15 270 3.2 4.8 0.03 0.03 0.03 81 989.7
20260505085321 15 270 1.6 3.2 0.03 0.03 0.03 81 989.8
20260505085221 15 271 0.0 1.6 0.03 0.03 0.03 83 989.8
20260505085121 15 279 1.6 3.2 0.03 0.03 0.03 81 989.7
20260505085021 15 258 1.6 3.2 0.03 0.03 0.03 82 989.8
20260505084921 15 254 0.0 3.2 0.03 0.03 0.03 83 989.9
20260505084823 15 292 0.0 1.6 0.03 0.03 0.03 82 989.9
20260505084723 15 292 0.0 1.6 0.03 0.03 0.03 82 989.8
20260505084623 15 279 0.0 1.6 0.03 0.03 0.03 83 989.7
20260505084523 15 270 0.0 1.6 0.03 0.03 0.03 84 989.7
20260505084422 15 270 0.0 1.6 0.03 0.03 0.03 83 989.8
20260505084322 15 270 0.0 1.6 0.03 0.03 0.03 84 989.8
20260505084222 15 270 0.0 1.6 0.03 0.03 0.03 84 989.8
20260505084122 15 270 1.6 3.2 0.03 0.03 0.03 82 989.7
20260505084022 15 270 1.6 3.2 0.03 0.03 0.03 82 989.7
20260505083922 15 270 0.0 3.2 0.03 0.03 0.03 81 989.8
20260505083823 15 270 0.0 1.6 0.03 0.03 0.03 82 989.8
20260505083722 15 270 0.0 0.0 0.03 0.03 0.03 82 989.8
20260505083622 15 270 0.0 0.0 0.03 0.03 0.03 82 989.7
20260505083522 15 270 0.0 0.0 0.03 0.03 0.03 82 989.9
20260505083422 15 270 0.0 0.0 0.03 0.03 0.03 82 989.9
20260505083322 15 270 0.0 0.0 0.03 0.03 0.03 83 989.9
20260505083222 15 270 0.0 0.0 0.03 0.03 0.03 83 989.8
20260505083122 15 270 0.0 0.0 0.03 0.03 0.03 83 989.9
20260505083022 14 270 0.0 0.0 0.03 0.03 0.03 82 989.9
20260505082922 14 270 0.0 0.0 0.03 0.03 0.03 82 989.9
20260505082822 14 270 0.0 3.2 0.03 0.03 0.03 82 989.9
20260505082722 15 270 1.6 3.2 0.03 0.03 0.03 80 989.8
20260505082622 15 270 1.6 3.2 0.03 0.03 0.03 80 989.8
20260505082522 15 270 1.6 3.2 0.03 0.03 0.03 82 989.9
20260505082422 15 263 0.0 3.2 0.03 0.03 0.03 80 989.8
20260505082321 15 258 0.0 0.0 0.03 0.03 0.03 80 989.7
20260505082221 15 270 0.0 0.0 0.03 0.03 0.03 82 989.8
20260505082121 15 270 0.0 0.0 0.03 0.03 0.03 82 989.9
20260505082021 15 270 0.0 0.0 0.03 0.03 0.03 82 989.8
20260505081921 15 270 0.0 1.6 0.03 0.03 0.03 82 989.9
20260505081821 15 270 0.0 1.6 0.03 0.03 0.03 81 989.9
20260505081721 15 270 0.0 1.6 0.03 0.03 0.03 80 989.9
20260505081621 15 277 0.0 1.6 0.03 0.03 0.03 79 989.9
20260505081521 15 333 0.0 1.6 0.03 0.03 0.03 80 989.8
20260505081421 15 351 0.0 0.0 0.03 0.03 0.03 81 990.0
20260505081321 15 353 0.0 0.0 0.03 0.03 0.03 81 990.0
20260505081221 15 20 0.0 0.0 0.03 0.03 0.03 81 989.8
20260505081121 15 45 0.0 0.0 0.00 0.00 0.00 81 989.9
20260505081021 15 68 0.0 0.0 0.00 0.00 0.00 81 990.0
20260505080921 15 111 0.0 0.0 0.00 0.00 0.00 80 989.9
20260505080821 15 340 0.0 1.6 0.00 0.00 0.00 81 990.0
20260505080721 15 314 0.0 1.6 0.00 0.00 0.00 81 989.8
20260505080621 15 292 0.0 0.0 0.00 0.00 0.00 81 989.9
20260505080521 15 292 0.0 0.0 0.00 0.00 0.00 81 989.9
20260505080421 15 285 0.0 0.0 0.00 0.00 0.00 81 989.9
20260505080323 15 347 0.0 0.0 0.00 0.00 0.00 80 990.1
20260505080223 15 35 0.0 0.0 0.00 0.00 0.00 80 990.1
20260505080123 15 23 0.0 0.0 0.00 0.00 0.00 81 989.9
20260505080023 15 44 0.0 1.6 0.00 0.00 0.00 81 990.0
20260505075923 15 82 0.0 1.6 0.00 0.00 0.00 80 990.0
20260505075822 15 112 0.0 1.6 0.00 0.00 0.00 80 990.0
20260505075722 15 292 0.0 1.6 0.00 0.00 0.00 80 990.1
20260505075622 15 292 0.0 1.6 0.00 0.00 0.00 81 990.0
20260505075522 15 292 0.0 1.6 0.00 0.00 0.00 81 990.0
20260505075422 15 292 0.0 0.0 0.00 0.00 0.00 81 990.1
20260505075322 15 312 0.0 0.0 0.00 0.00 0.00 81 990.1
20260505075222 15 7 0.0 0.0 0.00 0.00 0.00 81 990.1
20260505075122 15 34 0.0 0.0 0.00 0.00 0.00 80 990.2
20260505075022 15 79 0.0 1.6 0.00 0.00 0.00 80 990.1
20260505074922 15 34 0.0 1.6 0.00 0.00 0.00 81 990.2
20260505074822 15 11 0.0 1.6 0.00 0.00 0.00 80 990.1
20260505074722 15 125 0.0 1.6 0.00 0.00 0.00 80 990.2
20260505074622 15 270 0.0 1.6 0.00 0.00 0.00 80 990.2
20260505074522 15 278 0.0 1.6 0.00 0.00 0.00 81 990.1
20260505074422 15 281 0.0 1.6 0.00 0.00 0.00 80 990.3
20260505074322 15 41 0.0 1.6 0.00 0.00 0.00 81 990.2
20260505074222 15 102 0.0 0.0 0.00 0.00 0.00 81 990.2
20260505074122 15 135 0.0 1.6 0.00 0.00 0.00 80 990.2
20260505074022 15 270 0.0 1.6 0.00 0.00 0.00 82 990.1
20260505073922 15 290 0.0 0.0 0.00 0.00 0.00 82 990.1
20260505073822 15 338 0.0 0.0 0.00 0.00 0.00 83 990.2
20260505073722 15 328 0.0 0.0 0.00 0.00 0.00 83 990.1
20260505073622 14 248 0.0 0.0 0.00 0.00 0.00 82 990.2
20260505073522 14 248 0.0 0.0 0.00 0.00 0.00 82 990.0
20260505073421 14 261 0.0 0.0 0.00 0.00 0.00 82 990.1
20260505073321 14 270 0.0 1.6 0.00 0.00 0.00 81 990.0
20260505073221 14 273 1.6 1.6 0.00 0.00 0.00 81 990.2
20260505073121 14 324 0.0 1.6 0.00 0.00 0.00 82 990.0
20260505073021 14 45 0.0 0.0 0.00 0.00 0.00 82 990.1
20260505072921 14 322 0.0 1.6 0.00 0.00 0.00 81 990.0
20260505072821 14 270 1.6 3.2 0.00 0.00 0.00 81 990.0
20260505072721 14 259 3.2 8.0 0.00 0.00 0.00 80 990.0
20260505072621 14 258 3.2 8.0 0.00 0.00 0.00 80 990.1
20260505072521 14 264 1.6 4.8 0.00 0.00 0.00 79 990.0
20260505072421 14 250 3.2 4.8 0.00 0.00 0.00 78 990.0
20260505072321 15 269 1.6 4.8 0.00 0.00 0.00 77 990.1
20260505072221 15 270 1.6 4.8 0.00 0.00 0.00 77 990.0
20260505072121 15 311 0.0 3.2 0.00 0.00 0.00 77 989.9
20260505072023 15 283 1.6 4.8 0.00 0.00 0.00 77 990.0
20260505071923 15 274 1.6 4.8 0.00 0.00 0.00 76 989.9
20260505071823 15 256 1.6 3.2 0.00 0.00 0.00 76 989.9
20260505071723 15 268 3.2 4.8 0.00 0.00 0.00 76 989.9
20260505071623 15 270 1.6 4.8 0.00 0.00 0.00 75 989.9
20260505071523 15 270 0.0 1.6 0.00 0.00 0.00 75 989.8
20260505071423 15 270 0.0 1.6 0.00 0.00 0.00 75 989.8
20260505071323 15 270 0.0 1.6 0.00 0.00 0.00 76 989.7
20260505071223 15 270 0.0 1.6 0.00 0.00 0.00 76 989.8
20260505071122 14 270 0.0 1.6 0.00 0.00 0.00 77 989.7
20260505071022 14 270 1.6 1.6 0.00 0.00 0.00 77 989.7
20260505070922 14 270 1.6 1.6 0.00 0.00 0.00 76 989.7
20260505070822 14 270 1.6 1.6 0.00 0.00 0.00 76 989.8
20260505070722 14 270 0.0 1.6 0.00 0.00 0.00 77 989.8
20260505070622 14 269 0.0 0.0 0.00 0.00 0.00 77 989.8
20260505070522 14 250 0.0 0.0 0.00 0.00 0.00 77 989.8
20260505070422 14 248 0.0 0.0 0.00 0.00 0.00 77 989.8
20260505070322 14 254 0.0 1.6 0.00 0.00 0.00 77 989.8
20260505070222 14 270 0.0 1.6 0.00 0.00 0.00 77 989.6
20260505070122 14 270 0.0 0.0 0.00 0.00 0.00 77 989.8
20260505070022 14 270 0.0 0.0 0.00 0.00 0.00 78 989.7
20260505065922 14 270 0.0 0.0 0.00 0.00 0.00 79 989.8
20260505065822 14 270 0.0 0.0 0.00 0.00 0.00 80 989.7
20260505065722 14 270 0.0 0.0 0.00 0.00 0.00 80 989.9
20260505065622 14 270 0.0 1.6 0.00 0.00 0.00 80 989.8
20260505065522 13 270 0.0 1.6 0.00 0.00 0.00 79 989.9
20260505065422 13 270 0.0 1.6 0.00 0.00 0.00 80 989.9
20260505065322 13 270 0.0 1.6 0.00 0.00 0.00 80 989.7
20260505065222 13 270 0.0 1.6 0.00 0.00 0.00 80 989.8
20260505065122 13 270 0.0 1.6 0.00 0.00 0.00 80 989.7
20260505065022 13 270 0.0 1.6 0.00 0.00 0.00 80 989.7
20260505064921 13 270 0.0 1.6 0.00 0.00 0.00 81 989.7
20260505064821 13 270 0.0 0.0 0.00 0.00 0.00 80 989.7
20260505064721 13 270 0.0 0.0 0.00 0.00 0.00 80 989.9
20260505064621 13 270 0.0 1.6 0.00 0.00 0.00 80 989.9
20260505064521 13 270 0.0 1.6 0.00 0.00 0.00 80 989.8
20260505064421 13 270 0.0 1.6 0.00 0.00 0.00 80 989.8
20260505064321 13 270 0.0 1.6 0.00 0.00 0.00 81 989.8
20260505064221 13 270 1.6 3.2 0.00 0.00 0.00 81 989.8
20260505064121 13 270 1.6 3.2 0.00 0.00 0.00 81 989.8
20260505064021 13 270 0.0 3.2 0.00 0.00 0.00 81 989.8
20260505063921 13 270 0.0 1.6 0.00 0.00 0.00 81 989.9
20260505063821 13 270 1.6 1.6 0.00 0.00 0.00 82 989.9
20260505063721 13 270 1.6 1.6 0.00 0.00 0.00 82 989.8
20260505063621 13 270 1.6 3.2 0.00 0.00 0.00 82 989.8
20260505063521 13 270 1.6 3.2 0.00 0.00 0.00 82 989.9
20260505063421 13 270 1.6 3.2 0.00 0.00 0.00 81 989.9
20260505063321 13 270 1.6 1.6 0.00 0.00 0.00 81 989.9
20260505063223 13 270 1.6 3.2 0.00 0.00 0.00 81 989.9
20260505063123 13 270 1.6 3.2 0.00 0.00 0.00 82 989.8
20260505063023 13 270 1.6 3.2 0.00 0.00 0.00 81 989.8
20260505062923 13 270 3.2 3.2 0.00 0.00 0.00 81 989.7
20260505062822 13 270 1.6 3.2 0.00 0.00 0.00 81 989.9
20260505062722 13 270 1.6 3.2 0.00 0.00 0.00 81 989.9
20260505062622 13 270 1.6 1.6 0.00 0.00 0.00 81 989.7
20260505062522 13 270 1.6 3.2 0.00 0.00 0.00 81 989.8
20260505062422 13 270 1.6 3.2 0.00 0.00 0.00 81 990.0
20260505062322 13 270 1.6 3.2 0.00 0.00 0.00 81 989.8
20260505062222 13 270 1.6 3.2 0.00 0.00 0.00 81 989.8
20260505062122 13 270 1.6 1.6 0.00 0.00 0.00 81 989.7
20260505062022 13 270 0.0 1.6 0.00 0.00 0.00 80 989.7
20260505061922 13 270 0.0 1.6 0.00 0.00 0.00 80 989.9
20260505061822 13 270 0.0 1.6 0.00 0.00 0.00 80 989.9
20260505061722 13 270 0.0 1.6 0.00 0.00 0.00 80 989.8
20260505061622 13 270 1.6 1.6 0.00 0.00 0.00 80 989.7
20260505061522 13 270 1.6 1.6 0.00 0.00 0.00 81 989.8
20260505061422 13 270 1.6 4.8 0.00 0.00 0.00 81 989.9
20260505061322 13 270 1.6 4.8 0.00 0.00 0.00 81 989.9
20260505061222 13 270 1.6 3.2 0.00 0.00 0.00 81 989.8
20260505061122 13 270 1.6 3.2 0.00 0.00 0.00 81 989.8
20260505061022 13 270 1.6 3.2 0.00 0.00 0.00 81 989.9
20260505060922 13 270 1.6 3.2 0.00 0.00 0.00 81 989.7
20260505060822 13 251 1.6 4.8 0.00 0.00 0.00 82 989.6
20260505060721 13 263 3.2 8.0 0.00 0.00 0.00 81 989.8
20260505060621 13 270 3.2 8.0 0.00 0.00 0.00 82 989.8
20260505060521 13 270 3.2 4.8 0.00 0.00 0.00 82 989.8
20260505060421 13 270 0.0 3.2 0.00 0.00 0.00 82 989.8
20260505060321 13 270 0.0 1.6 0.00 0.00 0.00 83 989.8
20260505060221 13 270 0.0 1.6 0.00 0.00 0.00 83 989.8
20260505060121 13 285 0.0 1.6 0.00 0.00 0.00 82 989.7
20260505060021 13 292 0.0 0.0 0.00 0.00 0.00 82 989.7
20260505055921 13 292 0.0 0.0 0.00 0.00 0.00 82 989.7
20260505055821 13 292 0.0 0.0 0.00 0.00 0.00 82 989.7
20260505055721 13 292 0.0 0.0 0.00 0.00 0.00 82 989.6
20260505055621 13 292 0.0 0.0 0.00 0.00 0.00 81 989.8
20260505055521 13 292 0.0 0.0 0.00 0.00 0.00 81 989.8
20260505055421 13 292 0.0 0.0 0.00 0.00 0.00 81 989.7
20260505055321 13 292 0.0 0.0 0.00 0.00 0.00 81 989.6
20260505055221 13 292 0.0 0.0 0.00 0.00 0.00 82 989.6
20260505055121 12 292 0.0 0.0 0.00 0.00 0.00 82 989.6
20260505055021 12 292 0.0 0.0 0.00 0.00 0.00 82 989.6
20260505054921 12 293 0.0 0.0 0.00 0.00 0.00 82 989.6
20260505054821 12 313 0.0 0.0 0.00 0.00 0.00 82 989.5
20260505054723 12 327 0.0 0.0 0.00 0.00 0.00 83 989.5
20260505054623 12 338 0.0 0.0 0.00 0.00 0.00 83 989.6
20260505054523 12 338 0.0 0.0 0.00 0.00 0.00 84 989.6
20260505054422 12 338 0.0 0.0 0.00 0.00 0.00 84 989.5
20260505054322 12 313 0.0 0.0 0.00 0.00 0.00 84 989.5
20260505054222 12 292 0.0 0.0 0.00 0.00 0.00 84 989.6
20260505054122 12 308 0.0 0.0 0.00 0.00 0.00 84 989.6
20260505054022 12 315 0.0 0.0 0.00 0.00 0.00 85 989.6
20260505053922 12 315 0.0 0.0 0.00 0.00 0.00 85 989.6
20260505053822 12 315 0.0 0.0 0.00 0.00 0.00 85 989.5
20260505053722 12 299 0.0 0.0 0.00 0.00 0.00 85 989.5
20260505053622 12 292 0.0 0.0 0.00 0.00 0.00 84 989.6
20260505053522 12 292 0.0 0.0 0.00 0.00 0.00 84 989.6
20260505053422 12 292 0.0 0.0 0.00 0.00 0.00 84 989.6
20260505053322 12 292 0.0 0.0 0.00 0.00 0.00 83 989.5
20260505053222 12 292 0.0 0.0 0.00 0.00 0.00 83 989.7
20260505053122 12 292 0.0 0.0 0.00 0.00 0.00 83 989.5
20260505053022 12 292 0.0 0.0 0.00 0.00 0.00 83 989.5
20260505052922 12 292 0.0 0.0 0.00 0.00 0.00 83 989.5
20260505052822 12 292 0.0 0.0 0.00 0.00 0.00 82 989.5
20260505052722 13 292 0.0 0.0 0.00 0.00 0.00 82 989.5
20260505052622 13 292 0.0 0.0 0.00 0.00 0.00 82 989.5
20260505052522 13 309 0.0 0.0 0.00 0.00 0.00 81 989.6
20260505052422 13 330 0.0 0.0 0.00 0.00 0.00 81 989.6
20260505052322 13 354 0.0 0.0 0.00 0.00 0.00 80 989.5
20260505052221 13 338 0.0 0.0 0.00 0.00 0.00 79 989.5
20260505052122 13 340 0.0 0.0 0.00 0.00 0.00 78 989.5
20260505052021 13 32 0.0 0.0 0.00 0.00 0.00 78 989.5
20260505051921 13 112 0.0 0.0 0.00 0.00 0.00 77 989.5
20260505051822 13 112 0.0 1.6 0.00 0.00 0.00 77 989.5
20260505051721 13 116 1.6 3.2 0.00 0.00 0.00 77 989.5
20260505051621 13 127 1.6 3.2 0.00 0.00 0.00 77 989.6
20260505051521 13 120 3.2 3.2 0.00 0.00 0.00 78 989.6
20260505051421 12 135 1.6 3.2 0.00 0.00 0.00 79 989.6
20260505051321 12 123 1.6 3.2 0.00 0.00 0.00 80 989.7
20260505051221 12 146 0.0 3.2 0.00 0.00 0.00 81 989.8
20260505051121 12 112 0.0 1.6 0.00 0.00 0.00 82 989.7
20260505051021 12 45 0.0 0.0 0.00 0.00 0.00 83 989.7
20260505050921 12 53 0.0 0.0 0.00 0.00 0.00 83 989.8
20260505050821 12 134 0.0 0.0 0.00 0.00 0.00 83 989.7
20260505050721 12 135 0.0 0.0 0.00 0.00 0.00 83 989.7
20260505050621 12 135 0.0 0.0 0.00 0.00 0.00 83 989.9
20260505050521 12 135 0.0 0.0 0.00 0.00 0.00 83 989.8
20260505050421 12 135 0.0 0.0 0.00 0.00 0.00 82 989.8
20260505050321 12 135 0.0 0.0 0.00 0.00 0.00 82 989.7
20260505050221 12 135 0.0 0.0 0.00 0.00 0.00 81 989.8
20260505050123 12 135 0.0 0.0 0.00 0.00 0.00 81 989.8
20260505041721 11 259 0.0 0.0 0.00 0.00 0.00 85 989.8
20260505041621 11 270 0.0 0.0 0.00 0.00 0.00 85 989.7
20260505041523 11 270 0.0 0.0 0.00 0.00 0.00 85 989.7
20260505041423 11 270 0.0 0.0 0.00 0.00 0.00 85 989.7
20260505041323 11 270 0.0 0.0 0.00 0.00 0.00 85 989.8
20260505041223 11 270 0.0 0.0 0.00 0.00 0.00 85 989.8
20260505041123 11 270 0.0 0.0 0.00 0.00 0.00 85 989.8
20260505041022 11 270 0.0 0.0 0.00 0.00 0.00 85 989.9
20260505040922 11 270 0.0 0.0 0.00 0.00 0.00 85 989.8
20260505040822 11 270 0.0 0.0 0.00 0.00 0.00 85 989.9
20260505040722 11 270 0.0 0.0 0.00 0.00 0.00 85 989.8
20260505040622 11 270 0.0 0.0 0.00 0.00 0.00 85 989.8
20260505040522 11 270 0.0 0.0 0.00 0.00 0.00 85 990.0
20260505040422 11 270 0.0 0.0 0.00 0.00 0.00 85 989.8
20260505040322 11 270 0.0 0.0 0.00 0.00 0.00 85 989.9
20260505040222 11 270 0.0 1.6 0.00 0.00 0.00 85 989.7
20260505040122 11 270 0.0 1.6 0.00 0.00 0.00 85 989.8
20260505040022 11 270 1.6 3.2 0.00 0.00 0.00 85 989.8
20260505035922 11 270 1.6 3.2 0.00 0.00 0.00 85 989.7
20260505035822 11 270 0.0 1.6 0.00 0.00 0.00 85 989.7
20260505035722 11 270 0.0 1.6 0.00 0.00 0.00 85 989.7
20260505035622 11 276 0.0 1.6 0.00 0.00 0.00 85 989.8
20260505035522 11 315 0.0 0.0 0.00 0.00 0.00 85 989.9
20260505035422 11 315 0.0 0.0 0.00 0.00 0.00 86 989.7
20260505035322 11 315 0.0 0.0 0.00 0.00 0.00 86 989.8
20260505035222 11 325 0.0 0.0 0.00 0.00 0.00 86 989.9
20260505035122 11 68 0.0 0.0 0.00 0.00 0.00 86 989.9
20260505035022 11 68 0.0 0.0 0.00 0.00 0.00 86 989.7
20260505034922 11 68 0.0 0.0 0.00 0.00 0.00 86 989.8
20260505034822 11 86 0.0 0.0 0.00 0.00 0.00 86 989.8
20260505034722 11 90 0.0 0.0 0.00 0.00 0.00 86 989.7
20260505034622 11 91 0.0 1.6 0.00 0.00 0.00 86 989.7
20260505034522 11 109 0.0 1.6 0.00 0.00 0.00 86 989.7
20260505034421 11 292 0.0 1.6 0.00 0.00 0.00 86 989.8
20260505034321 11 292 0.0 0.0 0.00 0.00 0.00 86 989.7
20260505034221 11 292 0.0 0.0 0.00 0.00 0.00 86 989.7
20260505034121 11 292 0.0 0.0 0.00 0.00 0.00 86 989.6
20260505034021 11 292 0.0 0.0 0.00 0.00 0.00 86 989.7
20260505033921 11 292 0.0 0.0 0.00 0.00 0.00 86 989.7
20260505033821 10 291 0.0 1.6 0.00 0.00 0.00 86 989.6
20260505033721 10 272 0.0 1.6 0.00 0.00 0.00 87 989.7
20260505033621 10 270 0.0 0.0 0.00 0.00 0.00 87 989.7
20260505033521 10 270 0.0 0.0 0.00 0.00 0.00 87 989.5
20260505033421 10 270 0.0 0.0 0.00 0.00 0.00 87 989.6
20260505033321 10 270 0.0 0.0 0.00 0.00 0.00 86 989.7
20260505033221 11 256 0.0 0.0 0.00 0.00 0.00 86 989.7
20260505033121 11 270 0.0 0.0 0.00 0.00 0.00 86 989.6
20260505033021 11 164 0.0 0.0 0.00 0.00 0.00 85 989.5
20260505032923 11 135 0.0 0.0 0.00 0.00 0.00 85 989.7
20260505032823 11 135 0.0 0.0 0.00 0.00 0.00 85 989.8
20260505032723 11 135 0.0 0.0 0.00 0.00 0.00 85 989.6
20260505032623 11 135 0.0 0.0 0.00 0.00 0.00 85 989.5
20260505032523 11 135 0.0 0.0 0.00 0.00 0.00 85 989.5
20260505032422 11 135 0.0 0.0 0.00 0.00 0.00 85 989.5
20260505032322 11 135 0.0 0.0 0.00 0.00 0.00 84 989.5
20260505032222 11 135 0.0 0.0 0.00 0.00 0.00 84 989.6
20260505032122 11 135 0.0 0.0 0.00 0.00 0.00 84 989.6
20260505032022 11 135 0.0 0.0 0.00 0.00 0.00 83 989.6
20260505031922 11 135 0.0 0.0 0.00 0.00 0.00 83 989.5
20260505031822 11 135 0.0 0.0 0.00 0.00 0.00 83 989.6
20260505031722 11 135 0.0 0.0 0.00 0.00 0.00 83 989.6
20260505031622 11 135 0.0 0.0 0.00 0.00 0.00 83 989.7
20260505031522 11 135 0.0 0.0 0.00 0.00 0.00 83 989.8
20260505031422 12 135 0.0 0.0 0.00 0.00 0.00 82 989.8
20260505031322 12 135 0.0 0.0 0.00 0.00 0.00 82 989.8
20260505031222 12 135 0.0 0.0 0.00 0.00 0.00 82 989.8
20260505031122 12 135 0.0 0.0 0.00 0.00 0.00 82 989.9
20260505031022 12 135 0.0 0.0 0.00 0.00 0.00 82 989.7
20260505030922 12 135 0.0 0.0 0.00 0.00 0.00 82 989.7
20260505030822 12 135 0.0 0.0 0.00 0.00 0.00 82 989.7
20260505030722 12 135 0.0 0.0 0.00 0.00 0.00 82 990.0
20260505030622 12 135 0.0 0.0 0.00 0.00 0.00 81 989.8
20260505030522 12 135 0.0 0.0 0.00 0.00 0.00 81 989.7
20260505030422 12 135 0.0 0.0 0.00 0.00 0.00 81 989.9
20260505030322 12 135 0.0 0.0 0.00 0.00 0.00 81 989.7
20260505030222 12 135 0.0 0.0 0.00 0.00 0.00 81 989.8
20260505030122 12 135 0.0 0.0 0.00 0.00 0.00 81 989.9
20260505030022 12 135 0.0 0.0 0.00 0.00 0.00 81 989.9
20260505025921 12 135 0.0 0.0 0.00 0.00 0.00 81 989.9
20260505025821 12 135 0.0 0.0 0.00 0.00 0.00 82 989.9
20260505025721 11 135 0.0 0.0 0.00 0.00 0.00 82 989.8
20260505025621 11 135 0.0 0.0 0.00 0.00 0.00 83 989.9
20260505025521 11 135 0.0 0.0 0.00 0.00 0.00 84 990.0
20260505025421 11 135 0.0 0.0 0.00 0.00 0.00 85 990.0
20260505025321 11 135 0.0 0.0 0.00 0.00 0.00 86 990.0
20260505025221 11 135 0.0 0.0 0.00 0.00 0.00 85 990.0
20260505025121 11 135 0.0 0.0 0.00 0.00 0.00 85 990.0
20260505025021 11 135 0.0 0.0 0.00 0.00 0.00 85 990.0
20260505024921 11 135 0.0 0.0 0.00 0.00 0.00 85 989.9
20260505024821 11 135 0.0 0.0 0.00 0.00 0.00 85 990.0
20260505024721 11 135 0.0 0.0 0.00 0.00 0.00 85 990.0
20260505024621 11 135 0.0 0.0 0.00 0.00 0.00 85 990.0
20260505024523 11 135 0.0 0.0 0.00 0.00 0.00 85 990.0
20260505024423 11 135 0.0 0.0 0.00 0.00 0.00 85 989.9
20260505024323 11 135 0.0 0.0 0.00 0.00 0.00 85 990.1
20260505024223 11 135 0.0 0.0 0.00 0.00 0.00 85 990.1
20260505024122 11 135 0.0 0.0 0.00 0.00 0.00 85 990.0
20260505024022 11 135 0.0 0.0 0.00 0.00 0.00 85 990.0
20260505023922 11 135 0.0 0.0 0.00 0.00 0.00 84 990.1
20260505023822 11 135 0.0 0.0 0.00 0.00 0.00 84 990.1
20260505023722 12 135 0.0 0.0 0.00 0.00 0.00 83 990.1
20260505023622 12 135 0.0 0.0 0.00 0.00 0.00 83 990.1
20260505023522 12 135 0.0 0.0 0.00 0.00 0.00 82 990.0
20260505023422 12 135 0.0 0.0 0.00 0.00 0.00 82 990.1
20260505023322 12 135 0.0 0.0 0.00 0.00 0.00 81 990.0
20260505023222 12 135 0.0 0.0 0.00 0.00 0.00 80 990.1
20260505023122 12 135 0.0 0.0 0.00 0.00 0.00 80 990.2
20260505023022 12 135 0.0 0.0 0.00 0.00 0.00 80 990.2
20260505022922 12 135 0.0 0.0 0.00 0.00 0.00 81 990.3
20260505022822 12 135 0.0 0.0 0.00 0.00 0.00 81 990.2
20260505022722 12 135 0.0 0.0 0.00 0.00 0.00 81 990.2
20260505022622 12 135 0.0 0.0 0.00 0.00 0.00 81 990.3
20260505022522 12 135 0.0 0.0 0.00 0.00 0.00 81 990.4
20260505022422 12 135 0.0 0.0 0.00 0.00 0.00 82 990.4
20260505022322 12 135 0.0 0.0 0.00 0.00 0.00 82 990.4
20260505022222 12 135 0.0 0.0 0.00 0.00 0.00 82 990.5
20260505022122 12 135 0.0 0.0 0.00 0.00 0.00 83 990.4
20260505022022 12 135 0.0 0.0 0.00 0.00 0.00 83 990.6
20260505021922 12 135 0.0 0.0 0.00 0.00 0.00 83 990.4
20260505021821 12 135 0.0 0.0 0.00 0.00 0.00 83 990.4
20260505021721 12 135 0.0 0.0 0.00 0.00 0.00 82 990.4
20260505021621 12 135 0.0 0.0 0.00 0.00 0.00 82 990.4
20260505021521 12 135 0.0 0.0 0.00 0.00 0.00 82 990.4
20260505021421 12 135 0.0 0.0 0.00 0.00 0.00 82 990.5
20260505021321 12 135 0.0 0.0 0.00 0.00 0.00 82 990.5
20260505021221 12 135 0.0 0.0 0.00 0.00 0.00 81 990.6
20260505021121 12 135 0.0 0.0 0.00 0.00 0.00 81 990.5
20260505021021 12 135 0.0 0.0 0.00 0.00 0.00 81 990.5
20260505020921 12 135 0.0 1.6 0.00 0.00 0.00 81 990.6
20260505020821 12 135 0.0 1.6 0.00 0.00 0.00 81 990.6
20260505020721 12 135 0.0 1.6 0.00 0.00 0.00 82 990.7
20260505020621 12 198 0.0 1.6 0.00 0.00 0.00 82 990.6
20260505020521 12 270 0.0 0.0 0.00 0.00 0.00 83 990.7
20260505020421 12 270 0.0 0.0 0.00 0.00 0.00 83 990.7
20260505020321 11 270 0.0 0.0 0.00 0.00 0.00 84 990.6
20260505020221 11 270 0.0 0.0 0.00 0.00 0.00 85 990.7
20260505020123 11 270 0.0 0.0 0.00 0.00 0.00 85 990.7
20260505020023 11 270 0.0 0.0 0.00 0.00 0.00 85 990.6
20260505015923 11 270 0.0 0.0 0.00 0.00 0.00 85 990.7
20260505015823 11 270 0.0 0.0 0.00 0.00 0.00 85 990.8
20260505015723 11 270 0.0 0.0 0.00 0.00 0.00 84 990.8
20260505015623 12 270 0.0 0.0 0.00 0.00 0.00 84 990.8
20260505015522 12 270 0.0 3.2 0.00 0.00 0.00 84 990.7
20260505015422 12 270 1.6 3.2 0.00 0.00 0.00 84 990.7
20260505015322 12 145 0.0 1.6 0.00 0.00 0.00 82 990.7
20260505015222 12 135 0.0 1.6 0.00 0.00 0.00 82 990.7
20260505015122 12 135 0.0 0.0 0.00 0.00 0.00 81 990.7
20260505015022 12 135 0.0 0.0 0.00 0.00 0.00 81 990.8
20260505014922 12 135 0.0 0.0 0.00 0.00 0.00 81 990.8
20260505014822 12 135 0.0 0.0 0.00 0.00 0.00 81 990.8
20260505014722 12 135 0.0 0.0 0.00 0.00 0.00 81 990.9
20260505014622 12 135 0.0 1.6 0.00 0.00 0.00 81 990.8
20260505014522 12 135 0.0 1.6 0.00 0.00 0.00 81 990.8
20260505014422 12 135 0.0 1.6 0.00 0.00 0.00 82 990.8
20260505014322 12 135 0.0 1.6 0.00 0.00 0.00 82 990.7
20260505014222 12 135 0.0 0.0 0.00 0.00 0.00 83 990.8
20260505014122 12 135 0.0 0.0 0.00 0.00 0.00 83 990.9
20260505014022 12 135 0.0 0.0 0.00 0.00 0.00 83 990.8
20260505013922 12 135 0.0 0.0 0.00 0.00 0.00 82 990.8
20260505013822 12 135 0.0 0.0 0.00 0.00 0.00 82 990.8
20260505013722 12 135 0.0 0.0 0.00 0.00 0.00 82 990.7
20260505013622 12 135 0.0 0.0 0.00 0.00 0.00 82 990.8
20260505013521 12 135 0.0 0.0 0.00 0.00 0.00 81 990.7
20260505013421 13 135 0.0 0.0 0.00 0.00 0.00 81 990.7
20260505013321 13 135 0.0 0.0 0.00 0.00 0.00 81 990.5
20260505013221 13 135 0.0 0.0 0.00 0.00 0.00 81 990.8
20260505013121 13 135 0.0 0.0 0.00 0.00 0.00 81 990.8
20260505013021 13 135 0.0 0.0 0.00 0.00 0.00 81 990.9
20260505012921 12 135 0.0 0.0 0.00 0.00 0.00 81 990.9
20260505012821 12 151 0.0 0.0 0.00 0.00 0.00 81 990.7
20260505012721 12 180 0.0 0.0 0.00 0.00 0.00 81 990.7
20260505012621 12 192 0.0 0.0 0.00 0.00 0.00 82 991.0
20260505012522 12 202 0.0 0.0 0.00 0.00 0.00 82 990.8
20260505012421 12 202 0.0 0.0 0.00 0.00 0.00 82 990.8
20260505012321 12 202 0.0 0.0 0.00 0.00 0.00 82 990.9
20260505012221 12 227 0.0 0.0 0.00 0.00 0.00 83 991.0
20260505012121 12 248 0.0 0.0 0.00 0.00 0.00 83 991.0
20260505012021 12 249 0.0 0.0 0.00 0.00 0.00 83 991.1
20260505011921 12 269 0.0 0.0 0.00 0.00 0.00 83 991.0
20260505011821 12 270 0.0 0.0 0.00 0.00 0.00 84 991.0
20260505011721 12 270 0.0 1.6 0.00 0.00 0.00 84 991.0
20260505011623 12 270 0.0 1.6 0.00 0.00 0.00 83 991.2
20260505011523 12 270 1.6 4.8 0.00 0.00 0.00 83 991.1
20260505011423 12 270 3.2 4.8 0.00 0.00 0.00 83 991.0
20260505011323 12 270 3.2 4.8 0.00 0.00 0.00 83 991.1
20260505011223 12 270 3.2 4.8 0.00 0.00 0.00 83 991.0
20260505011123 12 270 3.2 4.8 0.00 0.00 0.00 84 991.0
20260505011023 12 270 1.6 3.2 0.00 0.00 0.00 83 990.9
20260505010922 12 268 1.6 3.2 0.00 0.00 0.00 83 991.0
20260505010823 12 248 1.6 1.6 0.00 0.00 0.00 83 991.0
20260505010722 12 248 0.0 1.6 0.00 0.00 0.00 83 991.0
20260505010622 12 248 0.0 1.6 0.00 0.00 0.00 83 991.0
20260505010522 12 248 0.0 1.6 0.00 0.00 0.00 83 990.9
20260505010422 12 248 0.0 1.6 0.00 0.00 0.00 83 991.0
20260505010322 12 248 0.0 1.6 0.00 0.00 0.00 83 991.0
20260505010222 12 248 0.0 0.0 0.00 0.00 0.00 83 991.0
20260505010122 12 248 0.0 0.0 0.00 0.00 0.00 83 991.0
20260505010022 12 248 0.0 0.0 0.00 0.00 0.00 83 991.0
20260505005922 12 248 0.0 0.0 0.00 0.00 0.00 83 991.1
20260505005822 12 248 0.0 0.0 0.00 0.00 0.00 84 991.0
20260505005722 13 248 0.0 1.6 0.00 0.00 0.00 82 991.1
20260505005622 13 248 0.0 1.6 0.00 0.00 0.00 82 991.1
20260505005522 13 220 0.0 1.6 0.00 0.00 0.00 82 991.1
20260505005422 13 158 0.0 0.0 0.00 0.00 0.00 81 991.2
20260505005322 13 158 0.0 0.0 0.00 0.00 0.00 81 991.0
20260505005222 13 158 0.0 0.0 0.00 0.00 0.00 80 991.2
20260505005122 13 158 0.0 0.0 0.00 0.00 0.00 80 991.1
20260505005022 13 158 0.0 0.0 0.00 0.00 0.00 80 991.2
20260505004922 13 158 0.0 0.0 0.00 0.00 0.00 80 991.2
20260505004822 13 158 0.0 0.0 0.00 0.00 0.00 80 991.2
20260505004722 13 158 0.0 0.0 0.00 0.00 0.00 81 991.0
20260505004622 13 158 0.0 0.0 0.00 0.00 0.00 80 991.2
20260505004522 13 158 0.0 0.0 0.00 0.00 0.00 80 991.2
20260505004421 13 158 0.0 1.6 0.00 0.00 0.00 80 991.1
20260505004321 13 158 0.0 1.6 0.00 0.00 0.00 80 991.1
20260505004221 13 158 0.0 1.6 0.00 0.00 0.00 80 991.1
20260505004121 13 158 0.0 1.6 0.00 0.00 0.00 80 991.3
20260505004021 13 158 0.0 0.0 0.00 0.00 0.00 80 991.3
20260505003921 13 158 0.0 0.0 0.00 0.00 0.00 79 991.3
20260505003821 13 158 0.0 0.0 0.00 0.00 0.00 78 991.3
20260505003721 13 158 0.0 0.0 0.00 0.00 0.00 79 991.4
20260505003621 13 158 0.0 0.0 0.00 0.00 0.00 79 991.3
20260505003521 13 158 0.0 0.0 0.00 0.00 0.00 79 991.4
20260505003421 13 158 0.0 0.0 0.00 0.00 0.00 78 991.5
20260505003321 13 158 0.0 0.0 0.00 0.00 0.00 78 991.4
20260505003221 13 158 0.0 0.0 0.00 0.00 0.00 78 991.4
20260505003121 13 158 0.0 0.0 0.00 0.00 0.00 79 991.4
20260505003021 13 158 0.0 0.0 0.00 0.00 0.00 79 991.5
20260505002921 13 158 0.0 0.0 0.00 0.00 0.00 79 991.5
20260505002821 13 158 0.0 0.0 0.00 0.00 0.00 80 991.5
20260505002721 12 158 0.0 0.0 0.00 0.00 0.00 80 991.6
20260505002621 12 158 0.0 0.0 0.00 0.00 0.00 81 991.4
20260505002521 12 158 0.0 0.0 0.00 0.00 0.00 82 991.4
20260505002423 12 158 0.0 0.0 0.00 0.00 0.00 81 991.4
20260505002323 12 158 0.0 0.0 0.00 0.00 0.00 81 991.6
20260505002223 13 158 0.0 0.0 0.00 0.00 0.00 81 991.6
20260505002123 13 158 0.0 0.0 0.00 0.00 0.00 81 991.6
20260505002023 13 158 0.0 0.0 0.00 0.00 0.00 81 991.5
20260505001923 13 158 0.0 0.0 0.00 0.00 0.00 81 991.6
20260505001822 13 158 0.0 0.0 0.00 0.00 0.00 80 991.6
20260505001722 13 158 0.0 0.0 0.00 0.00 0.00 80 991.6
20260505001622 13 158 0.0 0.0 0.00 0.00 0.00 80 991.7
20260505001522 13 158 0.0 0.0 0.00 0.00 0.00 79 991.6
20260505001422 13 158 0.0 0.0 0.00 0.00 0.00 79 991.5
20260505001322 13 158 0.0 0.0 0.00 0.00 0.00 77 991.5
20260505001222 13 158 0.0 0.0 0.00 0.00 0.00 77 991.5
20260505001122 13 158 0.0 0.0 0.00 0.00 0.00 76 991.6
20260505001022 13 158 0.0 0.0 0.00 0.00 0.00 77 991.6
20260505000922 13 158 0.0 0.0 0.00 0.00 0.00 78 991.5
20260505000822 13 158 0.0 0.0 0.00 0.00 0.00 80 991.6
20260505000722 13 158 0.0 0.0 0.00 0.00 0.00 80 991.5
20260505000622 13 158 0.0 0.0 0.00 0.00 0.00 80 991.6
20260505000522 13 158 0.0 0.0 0.00 0.00 0.00 80 991.6
20260505000422 13 158 0.0 0.0 0.00 0.00 0.00 80 991.6
20260505000322 13 158 0.0 0.0 0.00 0.00 0.00 80 991.7
20260505000222 13 158 0.0 0.0 0.00 0.00 0.00 80 991.7
20260505000122 13 158 0.0 0.0 0.00 0.00 0.00 80 991.8
20260505000022 13 158 0.0 0.0 0.00 0.00 0.00 80 991.7
20260504235922 13 158 0.0 0.0 0.00 0.00 0.00 80 991.7
20260504235822 13 158 0.0 0.0 0.00 0.00 0.00 79 991.6
20260504235722 13 158 0.0 0.0 0.00 0.00 0.00 79 991.7
20260504235622 13 158 0.0 0.0 0.00 0.00 0.00 79 991.8
20260504235522 13 158 0.0 0.0 0.00 0.00 0.00 78 991.6
20260504235422 13 158 0.0 0.0 0.00 0.00 0.00 78 991.7
20260504235321 13 158 0.0 0.0 0.00 0.00 0.00 77 991.7
20260504235221 13 158 0.0 0.0 0.00 0.00 0.00 77 991.8
20260504235121 13 158 0.0 0.0 0.00 0.00 0.00 77 991.8
20260504235021 14 158 0.0 0.0 0.00 0.00 0.00 77 991.8
20260504234921 14 158 0.0 0.0 0.00 0.00 0.00 76 991.8
20260504234821 14 158 0.0 0.0 0.00 0.00 0.00 76 991.8
20260504234721 14 158 0.0 0.0 0.00 0.00 0.00 76 991.7
20260504234621 14 158 0.0 0.0 0.00 0.00 0.00 75 991.7
20260504234521 14 158 0.0 1.6 0.00 0.00 0.00 74 991.7
20260504234421 14 163 0.0 1.6 0.00 0.00 0.00 73 991.9
20260504234321 14 180 0.0 1.6 0.00 0.00 0.00 73 991.9
20260504234221 14 180 0.0 1.6 0.00 0.00 0.00 74 991.8
20260504234121 14 180 0.0 1.6 0.00 0.00 0.00 74 991.7
20260504234021 14 180 0.0 1.6 0.00 0.00 0.00 74 991.7
20260504233921 14 180 0.0 0.0 0.00 0.00 0.00 74 991.8
20260504233821 14 195 0.0 0.0 0.00 0.00 0.00 76 992.0
20260504233721 14 202 0.0 0.0 0.00 0.00 0.00 77 991.9
20260504233621 14 202 0.0 0.0 0.00 0.00 0.00 77 991.9
20260504233523 14 202 0.0 0.0 0.00 0.00 0.00 77 991.9
20260504233423 14 202 0.0 0.0 0.00 0.00 0.00 76 992.0
20260504233323 14 202 0.0 0.0 0.00 0.00 0.00 76 991.9
20260504233223 14 202 0.0 0.0 0.00 0.00 0.00 76 991.9
20260504233123 14 202 0.0 0.0 0.00 0.00 0.00 76 991.9
20260504233023 14 202 0.0 0.0 0.00 0.00 0.00 76 991.9
20260504232922 14 202 0.0 0.0 0.00 0.00 0.00 76 991.8
20260504232822 14 202 0.0 0.0 0.00 0.00 0.00 76 992.0
20260504232722 14 202 0.0 0.0 0.00 0.00 0.00 76 992.0
20260504232622 13 202 0.0 0.0 0.00 0.00 0.00 76 992.0
20260504232522 13 202 0.0 0.0 0.00 0.00 0.00 76 992.0
20260504232422 13 202 0.0 0.0 0.00 0.00 0.00 77 992.0
20260504232322 13 226 0.0 0.0 0.00 0.00 0.00 77 991.9
20260504232222 13 257 0.0 0.0 0.00 0.00 0.00 77 992.0
20260504232122 13 270 0.0 0.0 0.00 0.00 0.00 78 992.1
20260504232022 13 270 0.0 0.0 0.00 0.00 0.00 79 992.0
20260504231922 13 270 0.0 0.0 0.00 0.00 0.00 79 991.9
20260504231822 13 270 0.0 0.0 0.00 0.00 0.00 79 992.0
20260504231722 13 270 0.0 0.0 0.00 0.00 0.00 79 991.9
20260504231622 13 270 0.0 0.0 0.00 0.00 0.00 78 992.0
20260504231522 13 270 0.0 0.0 0.00 0.00 0.00 78 992.1
20260504231422 13 270 0.0 0.0 0.00 0.00 0.00 78 992.1
20260504231322 14 270 0.0 0.0 0.00 0.00 0.00 78 992.0
20260504231222 14 270 0.0 0.0 0.00 0.00 0.00 77 991.9
20260504231122 14 270 0.0 0.0 0.00 0.00 0.00 77 992.1
20260504231022 14 270 0.0 0.0 0.00 0.00 0.00 77 992.2
20260504230922 14 270 0.0 0.0 0.00 0.00 0.00 77 992.0
20260504230822 14 270 0.0 0.0 0.00 0.00 0.00 77 992.0
20260504230722 14 270 0.0 0.0 0.00 0.00 0.00 77 992.1
20260504230622 14 270 0.0 0.0 0.00 0.00 0.00 77 992.2
20260504230522 14 270 0.0 0.0 0.00 0.00 0.00 77 992.2
20260504230422 13 270 0.0 0.0 0.00 0.00 0.00 77 992.1
20260504230322 13 270 0.0 0.0 0.00 0.00 0.00 78 992.1
20260504230222 13 270 0.0 0.0 0.00 0.00 0.00 78 992.1
20260504230122 13 270 0.0 0.0 0.00 0.00 0.00 78 992.1
20260504230021 13 270 0.0 0.0 0.00 0.00 0.00 78 992.0
20260504225921 13 270 0.0 0.0 0.00 0.00 0.00 78 992.0
20260504225821 13 270 0.0 0.0 0.00 0.00 0.00 78 992.0
20260504225721 13 270 0.0 1.6 0.00 0.00 0.00 78 992.1
20260504225621 13 270 1.6 1.6 0.00 0.00 0.00 78 992.0
20260504225521 13 255 0.0 1.6 0.00 0.00 0.00 79 992.0
20260504225421 13 248 0.0 0.0 0.00 0.00 0.00 79 991.9
20260504225321 13 248 0.0 0.0 0.00 0.00 0.00 79 992.1
20260504225221 13 248 0.0 0.0 0.00 0.00 0.00 79 992.0
20260504225121 13 248 0.0 0.0 0.00 0.00 0.00 79 992.0
20260504225021 13 248 0.0 0.0 0.00 0.00 0.00 79 992.1
20260504224921 13 248 0.0 0.0 0.00 0.00 0.00 79 992.1
20260504224821 13 248 0.0 0.0 0.00 0.00 0.00 79 992.1
20260504224721 13 248 0.0 0.0 0.00 0.00 0.00 79 992.1
20260504224621 13 248 0.0 0.0 0.00 0.00 0.00 79 992.1
20260504224521 13 180 0.0 0.0 0.00 0.00 0.00 79 992.2
20260504224421 14 158 0.0 0.0 0.00 0.00 0.00 78 992.1
20260504224323 14 158 0.0 0.0 0.00 0.00 0.00 79 992.1
20260504224223 14 158 0.0 0.0 0.00 0.00 0.00 78 992.0
20260504224123 14 158 0.0 0.0 0.00 0.00 0.00 77 992.1
20260504224023 14 158 0.0 0.0 0.00 0.00 0.00 76 992.2
20260504223923 14 158 0.0 0.0 0.00 0.00 0.00 76 992.3
20260504223823 14 158 0.0 0.0 0.00 0.00 0.00 75 992.3
20260504223723 14 158 0.0 0.0 0.00 0.00 0.00 75 992.3
20260504223622 14 158 0.0 0.0 0.00 0.00 0.00 75 992.3
20260504223522 14 158 0.0 0.0 0.00 0.00 0.00 74 992.4
20260504223422 14 158 0.0 0.0 0.00 0.00 0.00 74 992.3
20260504223322 15 158 0.0 0.0 0.00 0.00 0.00 74 992.3
20260504223222 15 158 0.0 0.0 0.00 0.00 0.00 74 992.3
20260504223122 15 158 0.0 0.0 0.00 0.00 0.00 73 992.4
20260504223022 15 158 0.0 0.0 0.00 0.00 0.00 73 992.4
20260504222922 15 158 0.0 0.0 0.00 0.00 0.00 73 992.5
20260504222822 15 158 0.0 0.0 0.00 0.00 0.00 73 992.5
20260504222722 15 158 0.0 0.0 0.00 0.00 0.00 73 992.5
20260504222622 15 158 0.0 0.0 0.00 0.00 0.00 72 992.5
20260504222522 15 158 0.0 0.0 0.00 0.00 0.00 72 992.4
20260504222422 15 158 0.0 0.0 0.00 0.00 0.00 72 992.6
20260504222322 15 158 0.0 0.0 0.00 0.00 0.00 72 992.6
20260504222222 15 158 0.0 0.0 0.00 0.00 0.00 72 992.5
20260504222122 15 158 0.0 0.0 0.00 0.00 0.00 72 992.6
20260504222022 15 158 0.0 0.0 0.00 0.00 0.00 72 992.5
20260504221922 15 171 0.0 0.0 0.00 0.00 0.00 72 992.6
20260504221822 15 202 0.0 0.0 0.00 0.00 0.00 71 992.6
20260504221722 15 202 0.0 0.0 0.00 0.00 0.00 71 992.6
20260504221622 15 202 0.0 0.0 0.00 0.00 0.00 71 992.6
20260504221522 15 202 0.0 0.0 0.00 0.00 0.00 71 992.5
20260504221421 15 202 0.0 0.0 0.00 0.00 0.00 71 992.5
20260504221321 15 202 0.0 0.0 0.00 0.00 0.00 71 992.5
20260504221221 15 202 0.0 1.6 0.00 0.00 0.00 71 992.5
20260504221121 15 229 0.0 1.6 0.00 0.00 0.00 71 992.6
20260504221021 15 292 0.0 0.0 0.00 0.00 0.00 71 992.5
20260504220921 15 292 0.0 0.0 0.00 0.00 0.00 71 992.4
20260504220821 15 292 0.0 1.6 0.00 0.00 0.00 71 992.6
20260504220721 15 292 0.0 1.6 0.00 0.00 0.00 71 992.7
20260504220621 15 280 0.0 1.6 0.00 0.00 0.00 71 992.7
20260504220521 15 270 0.0 0.0 0.00 0.00 0.00 71 992.7
20260504220421 15 270 0.0 1.6 0.00 0.00 0.00 71 992.7
20260504220321 15 263 0.0 1.6 0.00 0.00 0.00 71 992.6
20260504220221 15 248 0.0 0.0 0.00 0.00 0.00 70 992.8
20260504220121 15 239 0.0 1.6 0.00 0.00 0.00 70 992.7
20260504220021 15 125 0.0 3.2 0.00 0.00 0.00 69 992.7
20260504215921 15 112 1.6 3.2 0.00 0.00 0.00 69 992.6
20260504215821 15 149 1.6 8.0 0.00 0.00 0.00 69 992.6
20260504215721 15 152 3.2 8.0 0.00 0.00 0.00 70 992.6
20260504215621 15 121 3.2 4.8 0.00 0.00 0.00 70 992.6
20260504215521 15 149 3.2 4.8 0.00 0.00 0.00 70 992.5
20260504215421 15 160 3.2 4.8 0.00 0.00 0.00 70 992.6
20260504215321 15 135 1.6 3.2 0.00 0.00 0.00 70 992.6
20260504215223 15 135 3.2 4.8 0.00 0.00 0.00 70 992.6
20260504215123 15 135 3.2 4.8 0.00 0.00 0.00 70 992.7
20260504215023 15 135 3.2 4.8 0.00 0.00 0.00 70 992.7
20260504214923 15 135 4.8 4.8 0.00 0.00 0.00 70 992.8
20260504214823 15 115 3.2 8.0 0.00 0.00 0.00 70 992.6
20260504214723 15 110 4.8 8.0 0.00 0.00 0.00 69 992.7
20260504214623 15 158 4.8 8.0 0.00 0.00 0.00 70 992.7
20260504214522 15 145 3.2 8.0 0.00 0.00 0.00 70 992.7
20260504214422 15 141 3.2 9.7 0.00 0.00 0.00 70 992.7
20260504214322 15 118 3.2 9.7 0.00 0.00 0.00 70 992.8
20260504214222 15 135 1.6 4.8 0.00 0.00 0.00 71 992.8
20260504214122 15 138 1.6 4.8 0.00 0.00 0.00 71 992.8
20260504214022 15 150 1.6 3.2 0.00 0.00 0.00 71 992.9
20260504213923 15 135 1.6 3.2 0.00 0.00 0.00 71 992.9
20260504213822 15 135 1.6 3.2 0.00 0.00 0.00 71 993.0
20260504213722 15 153 1.6 8.0 0.00 0.00 0.00 71 993.1
20260504213622 15 154 3.2 8.0 0.00 0.00 0.00 70 993.1
20260504213522 15 76 3.2 8.0 0.00 0.00 0.00 70 993.0
20260504213422 15 119 3.2 4.8 0.00 0.00 0.00 71 993.0
20260504213322 15 148 3.2 4.8 0.00 0.00 0.00 71 993.1
20260504213222 15 135 3.2 4.8 0.00 0.00 0.00 71 993.0
20260504213122 15 144 3.2 4.8 0.00 0.00 0.00 70 992.9
20260504213022 15 145 3.2 3.2 0.00 0.00 0.00 71 993.1
20260504212922 15 148 1.6 3.2 0.00 0.00 0.00 71 993.2
20260504212822 15 135 1.6 3.2 0.00 0.00 0.00 71 993.2